Observation data for Goodnight on 11/09/2019      Previous  Date       Current Mesonet Observations  Soil Data  Daily Summary Page  Observations in Plain Language
KGO1 090600Z 28012KT 04/04 A3026 RMK A01 T00440041  RH  098%=      5-min Rain = 0
KGO1 090601Z 28012KT 05/04 A3026 RMK A01 T00450042  RH  098%=      5-min Rain = 0
KGO1 090602Z 27011KT 05/04 A3026 RMK A01 T00450042  RH  098%=      5-min Rain = 0
KGO1 090603Z 27012KT 05/04 A3026 RMK A01 T00450042  RH  098%=      5-min Rain = 0
KGO1 090604Z 27012KT 05/04 A3026 RMK A01 T00460042  RH  098%=      5-min Rain = 0
KGO1 090605Z 27013KT 05/04 A3026 RMK A01 T00470043  RH  097%=      5-min Rain = 0
KGO1 090606Z 27013KT 05/04 A3026 RMK A01 T00470043  RH  097%=      5-min Rain = 0
KGO1 090607Z 27013KT 05/04 A3026 RMK A01 T00480044  RH  097%=      5-min Rain = 0
KGO1 090608Z 27013KT 05/04 A3026 RMK A01 T00480044  RH  097%=      5-min Rain = 0
KGO1 090609Z 27012KT 05/04 A3026 RMK A01 T00480043  RH  097%=      5-min Rain = 0
KGO1 090610Z 27013KT 05/04 A3026 RMK A01 T00480043  RH  096%=      5-min Rain = 0
KGO1 090611Z 27013KT 05/04 A3026 RMK A01 T00490043  RH  097%=      5-min Rain = 0
KGO1 090612Z 27013KT 05/04 A3025 RMK A01 T00490044  RH  096%=      5-min Rain = 0
KGO1 090613Z 27013KT 05/04 A3025 RMK A01 T00490044  RH  096%=      5-min Rain = 0
KGO1 090614Z 27013KT 05/04 A3025 RMK A01 T00500044  RH  096%=      5-min Rain = 0
KGO1 090615Z 27013KT 05/04 A3025 RMK A01 T00500044  RH  096%=      5-min Rain = 0
KGO1 090616Z 27013KT 05/04 A3025 RMK A01 T00500044  RH  096%=      5-min Rain = 0
KGO1 090617Z 27013KT 05/05 A3025 RMK A01 T00510045  RH  096%=      5-min Rain = 0
KGO1 090618Z 27013KT 05/05 A3025 RMK A01 T00520045  RH  095%=      5-min Rain = 0
KGO1 090619Z 27013KT 05/05 A3025 RMK A01 T00520045  RH  095%=      5-min Rain = 0
KGO1 090620Z 28013KT 05/05 A3025 RMK A01 T00520045  RH  095%=      5-min Rain = 0
KGO1 090621Z 27013KT 05/05 A3025 RMK A01 T00520045  RH  095%=      5-min Rain = 0
KGO1 090622Z 27012KT 05/05 A3025 RMK A01 T00520046  RH  095%=      5-min Rain = 0
KGO1 090623Z 27013KT 05/05 A3025 RMK A01 T00530046  RH  095%=      5-min Rain = 0
KGO1 090624Z 27013KT 05/05 A3025 RMK A01 T00530046  RH  095%=      5-min Rain = 0
KGO1 090625Z 27013KT 05/05 A3025 RMK A01 T00530045  RH  095%=      5-min Rain = 0
KGO1 090626Z 27014KT 05/05 A3025 RMK A01 T00530045  RH  095%=      5-min Rain = 0
KGO1 090627Z 27013KT 05/05 A3025 RMK A01 T00530045  RH  095%=      5-min Rain = 0
KGO1 090628Z 27013KT 05/05 A3025 RMK A01 T00530045  RH  095%=      5-min Rain = 0
KGO1 090629Z 27013KT 05/05 A3025 RMK A01 T00530045  RH  095%=      5-min Rain = 0
KGO1 090630Z 27012KT 05/05 A3025 RMK A01 T00530045  RH  095%=      5-min Rain = 0
KGO1 090631Z 27013KT 05/05 A3025 RMK A01 T00530045  RH  095%=      5-min Rain = 0
KGO1 090632Z 27012KT 05/05 A3025 RMK A01 T00520045  RH  095%=      5-min Rain = 0
KGO1 090633Z 27012KT 05/05 A3025 RMK A01 T00520045  RH  095%=      5-min Rain = 0
KGO1 090634Z 27011KT 05/05 A3025 RMK A01 T00520045  RH  095%=      5-min Rain = 0
KGO1 090635Z 27011KT 05/05 A3025 RMK A01 T00520045  RH  095%=      5-min Rain = 0
KGO1 090636Z 27011KT 05/05 A3025 RMK A01 T00520045  RH  095%=      5-min Rain = 0
KGO1 090637Z 28011KT 05/05 A3025 RMK A01 T00530046  RH  095%=      5-min Rain = 0
KGO1 090638Z 27011KT 05/05 A3025 RMK A01 T00540046  RH  095%=      5-min Rain = 0
KGO1 090639Z 27011KT 05/05 A3025 RMK A01 T00540046  RH  095%=      5-min Rain = 0
KGO1 090640Z 28012KT 05/05 A3025 RMK A01 T00540046  RH  095%=      5-min Rain = 0
KGO1 090641Z 28012KT 05/05 A3025 RMK A01 T00530045  RH  095%=      5-min Rain = 0
KGO1 090642Z 28011KT 05/04 A3025 RMK A01 T00520044  RH  095%=      5-min Rain = 0
KGO1 090643Z 28011KT 05/04 A3025 RMK A01 T00520044  RH  095%=      5-min Rain = 0
KGO1 090644Z 28012KT 05/04 A3025 RMK A01 T00520044  RH  095%=      5-min Rain = 0
KGO1 090645Z 28011KT 05/04 A3025 RMK A01 T00520044  RH  095%=      5-min Rain = 0
KGO1 090646Z 28012KT 05/04 A3025 RMK A01 T00510043  RH  095%=      5-min Rain = 0
KGO1 090647Z 28011KT 05/04 A3025 RMK A01 T00500043  RH  095%=      5-min Rain = 0
KGO1 090648Z 28011KT 05/04 A3025 RMK A01 T00490042  RH  095%=      5-min Rain = 0
KGO1 090649Z 28010KT 05/04 A3025 RMK A01 T00490042  RH  095%=      5-min Rain = 0
KGO1 090650Z 28011KT 05/04 A3025 RMK A01 T00490043  RH  096%=      5-min Rain = 0
KGO1 090651Z 27010KT 05/04 A3025 RMK A01 T00490043  RH  096%=      5-min Rain = 0
KGO1 090652Z 27010KT 05/04 A3025 RMK A01 T00490043  RH  096%=      5-min Rain = 0
KGO1 090653Z 27011KT 05/04 A3025 RMK A01 T00500043  RH  096%=      5-min Rain = 0
KGO1 090654Z 27011KT 05/04 A3025 RMK A01 T00500043  RH  096%=      5-min Rain = 0
KGO1 090655Z 27011KT 05/04 A3025 RMK A01 T00500044  RH  096%=      5-min Rain = 0
KGO1 090656Z 27011KT 05/04 A3025 RMK A01 T00500044  RH  096%=      5-min Rain = 0
KGO1 090657Z 27011KT 05/04 A3025 RMK A01 T00510044  RH  095%=      5-min Rain = 0
KGO1 090658Z 27012KT 05/04 A3025 RMK A01 T00510044  RH  095%=      5-min Rain = 0
KGO1 090659Z 27011KT 05/05 A3025 RMK A01 T00510045  RH  095%=      5-min Rain = 0
KGO1 090700Z 27010KT 05/05 A3025 RMK A01 T00520045  RH  095%=      5-min Rain = 0
KGO1 090701Z 27010KT 05/04 A3025 RMK A01 T00520044  RH  095%=      5-min Rain = 0
KGO1 090702Z 27010KT 05/04 A3025 RMK A01 T00520044  RH  095%=      5-min Rain = 0
KGO1 090703Z 27011KT 05/04 A3025 RMK A01 T00510044  RH  095%=      5-min Rain = 0
KGO1 090704Z 27011KT 05/04 A3025 RMK A01 T00510043  RH  095%=      5-min Rain = 0
KGO1 090705Z 27010KT 05/04 A3025 RMK A01 T00510043  RH  095%=      5-min Rain = 0
KGO1 090706Z 27010KT 05/04 A3025 RMK A01 T00510043  RH  095%=      5-min Rain = 0
KGO1 090707Z 27010KT 05/04 A3025 RMK A01 T00510043  RH  095%=      5-min Rain = 0
KGO1 090708Z 27011KT 05/04 A3025 RMK A01 T00500043  RH  095%=      5-min Rain = 0
KGO1 090709Z 27011KT 05/04 A3025 RMK A01 T00500042  RH  095%=      5-min Rain = 0
KGO1 090710Z 27010KT 05/04 A3025 RMK A01 T00490042  RH  095%=      5-min Rain = 0
KGO1 090711Z 27010KT 05/04 A3025 RMK A01 T00490042  RH  095%=      5-min Rain = 0
KGO1 090712Z 27010KT 05/04 A3025 RMK A01 T00480041  RH  095%=      5-min Rain = 0
KGO1 090713Z 26009KT 05/04 A3025 RMK A01 T00480041  RH  095%=      5-min Rain = 0
KGO1 090714Z 26009KT 05/04 A3025 RMK A01 T00470040  RH  095%=      5-min Rain = 0
KGO1 090715Z 26010KT 05/04 A3025 RMK A01 T00470040  RH  096%=      5-min Rain = 0
KGO1 090716Z 26009KT 05/04 A3025 RMK A01 T00470041  RH  096%=      5-min Rain = 0
KGO1 090717Z 26009KT 05/04 A3025 RMK A01 T00470040  RH  096%=      5-min Rain = 0
KGO1 090718Z 26009KT 05/04 A3025 RMK A01 T00470040  RH  096%=      5-min Rain = 0
KGO1 090719Z 26009KT 05/04 A3025 RMK A01 T00470040  RH  096%=      5-min Rain = 0
KGO1 090720Z 26009KT 05/04 A3025 RMK A01 T00460040  RH  096%=      5-min Rain = 0
KGO1 090721Z 26010KT 05/04 A3025 RMK A01 T00460040  RH  096%=      5-min Rain = 0
KGO1 090722Z 26010KT 05/04 A3025 RMK A01 T00460039  RH  096%=      5-min Rain = 0
KGO1 090723Z 26010KT 05/04 A3025 RMK A01 T00460039  RH  096%=      5-min Rain = 0
KGO1 090724Z 26010KT 05/04 A3025 RMK A01 T00460040  RH  096%=      5-min Rain = 0
KGO1 090725Z 27009KT 05/04 A3025 RMK A01 T00460039  RH  096%=      5-min Rain = 0
KGO1 090726Z 26009KT 05/04 A3025 RMK A01 T00460039  RH  095%=      5-min Rain = 0
KGO1 090727Z 26009KT 05/04 A3025 RMK A01 T00450038  RH  095%=      5-min Rain = 0
KGO1 090728Z 26009KT 05/04 A3025 RMK A01 T00450039  RH  095%=      5-min Rain = 0
KGO1 090729Z 26010KT 05/04 A3025 RMK A01 T00450038  RH  096%=      5-min Rain = 0
KGO1 090730Z 26009KT 05/04 A3025 RMK A01 T00450039  RH  096%=      5-min Rain = 0
KGO1 090731Z 26010KT 05/04 A3025 RMK A01 T00450039  RH  096%=      5-min Rain = 0
KGO1 090732Z 26011KT 05/04 A3025 RMK A01 T00450039  RH  096%=      5-min Rain = 0
KGO1 090733Z 26010KT 05/04 A3025 RMK A01 T00450039  RH  096%=      5-min Rain = 0
KGO1 090734Z 26010KT 05/04 A3025 RMK A01 T00460039  RH  095%=      5-min Rain = 0
KGO1 090735Z 26012KT 05/04 A3025 RMK A01 T00460039  RH  095%=      5-min Rain = 0
KGO1 090736Z 26009KT 05/04 A3025 RMK A01 T00460039  RH  095%=      5-min Rain = 0
KGO1 090737Z 26008KT 05/04 A3025 RMK A01 T00460039  RH  095%=      5-min Rain = 0
KGO1 090738Z 26010KT 05/04 A3025 RMK A01 T00450037  RH  095%=      5-min Rain = 0
KGO1 090739Z 26010KT 04/04 A3025 RMK A01 T00440037  RH  095%=      5-min Rain = 0
KGO1 090740Z 26009KT 04/04 A3025 RMK A01 T00440037  RH  095%=      5-min Rain = 0
KGO1 090741Z 26008KT 04/04 A3025 RMK A01 T00440037  RH  096%=      5-min Rain = 0
KGO1 090742Z 26009KT 04/04 A3025 RMK A01 T00430037  RH  095%=      5-min Rain = 0
KGO1 090743Z 26008KT 04/04 A3025 RMK A01 T00430036  RH  095%=      5-min Rain = 0
KGO1 090744Z 26008KT 04/04 A3025 RMK A01 T00430036  RH  096%=      5-min Rain = 0
KGO1 090745Z 26008KT 04/04 A3025 RMK A01 T00430037  RH  096%=      5-min Rain = 0
KGO1 090746Z 26008KT 04/04 A3025 RMK A01 T00430036  RH  096%=      5-min Rain = 0
KGO1 090747Z 26008KT 04/04 A3025 RMK A01 T00430036  RH  096%=      5-min Rain = 0
KGO1 090748Z 27008KT 04/04 A3024 RMK A01 T00430036  RH  096%=      5-min Rain = 0
KGO1 090749Z 26007KT 04/04 A3024 RMK A01 T00430037  RH  096%=      5-min Rain = 0
KGO1 090750Z 26008KT 04/04 A3024 RMK A01 T00430036  RH  095%=      5-min Rain = 0
KGO1 090751Z 26008KT 04/04 A3024 RMK A01 T00430036  RH  095%=      5-min Rain = 0
KGO1 090752Z 26007KT 04/04 A3024 RMK A01 T00440036  RH  095%=      5-min Rain = 0
KGO1 090753Z 25007KT 04/04 A3024 RMK A01 T00440036  RH  095%=      5-min Rain = 0
KGO1 090754Z 25008KT 04/04 A3024 RMK A01 T00430035  RH  095%=      5-min Rain = 0
KGO1 090755Z 25007KT 04/04 A3024 RMK A01 T00430035  RH  095%=      5-min Rain = 0
KGO1 090756Z 25008KT 04/04 A3024 RMK A01 T00430035  RH  095%=      5-min Rain = 0
KGO1 090757Z 25008KT 04/04 A3024 RMK A01 T00430035  RH  095%=      5-min Rain = 0
KGO1 090758Z 25009KT 04/04 A3024 RMK A01 T00430035  RH  095%=      5-min Rain = 0
KGO1 090759Z 25008KT 04/04 A3024 RMK A01 T00430035  RH  095%=      5-min Rain = 0
KGO1 090800Z 26008KT 04/04 A3024 RMK A01 T00430035  RH  094%=      5-min Rain = 0
KGO1 090801Z 26009KT 04/04 A3024 RMK A01 T00430035  RH  094%=      5-min Rain = 0
KGO1 090802Z 26010KT 04/03 A3024 RMK A01 T00430034  RH  094%=      5-min Rain = 0
KGO1 090803Z 25009KT 04/04 A3024 RMK A01 T00430035  RH  094%=      5-min Rain = 0
KGO1 090804Z 26010KT 04/03 A3024 RMK A01 T00440034  RH  094%=      5-min Rain = 0
KGO1 090805Z 26009KT 04/03 A3023 RMK A01 T00440034  RH  094%=      5-min Rain = 0
KGO1 090806Z 26010KT 04/03 A3023 RMK A01 T00440034  RH  093%=      5-min Rain = 0
KGO1 090807Z 26010KT 04/03 A3023 RMK A01 T00440034  RH  093%=      5-min Rain = 0
KGO1 090808Z 26011KT 04/03 A3023 RMK A01 T00440034  RH  093%=      5-min Rain = 0
KGO1 090809Z 26011KT 04/03 A3023 RMK A01 T00440034  RH  093%=      5-min Rain = 0
KGO1 090810Z 26010KT 04/03 A3023 RMK A01 T00440034  RH  093%=      5-min Rain = 0
KGO1 090811Z 27011KT 04/03 A3023 RMK A01 T00440034  RH  093%=      5-min Rain = 0
KGO1 090812Z 27011KT 04/03 A3023 RMK A01 T00440034  RH  093%=      5-min Rain = 0
KGO1 090813Z 26012KT 04/03 A3023 RMK A01 T00440034  RH  093%=      5-min Rain = 0
KGO1 090814Z 27012KT 05/03 A3023 RMK A01 T00450034  RH  093%=      5-min Rain = 0
KGO1 090815Z 27012KT 05/03 A3023 RMK A01 T00450034  RH  092%=      5-min Rain = 0
KGO1 090816Z 27012KT 05/03 A3023 RMK A01 T00450033  RH  092%=      5-min Rain = 0
KGO1 090817Z 27012KT 05/03 A3023 RMK A01 T00450033  RH  092%=      5-min Rain = 0
KGO1 090818Z 27012KT 05/03 A3023 RMK A01 T00450033  RH  092%=      5-min Rain = 0
KGO1 090819Z 27012KT 05/03 A3023 RMK A01 T00450033  RH  092%=      5-min Rain = 0
KGO1 090820Z 27012KT 05/03 A3023 RMK A01 T00450033  RH  092%=      5-min Rain = 0
KGO1 090821Z 27012KT 05/03 A3023 RMK A01 T00450033  RH  092%=      5-min Rain = 0
KGO1 090822Z 28012KT 05/03 A3023 RMK A01 T00450033  RH  092%=      5-min Rain = 0
KGO1 090823Z 27012KT 05/03 A3023 RMK A01 T00450033  RH  092%=      5-min Rain = 0
KGO1 090824Z 27012KT 04/03 A3023 RMK A01 T00440032  RH  092%=      5-min Rain = 0
KGO1 090825Z 27011KT 04/03 A3022 RMK A01 T00440032  RH  092%=      5-min Rain = 0
KGO1 090826Z 27011KT 04/03 A3022 RMK A01 T00440032  RH  092%=      5-min Rain = 0
KGO1 090827Z 27012KT 04/03 A3022 RMK A01 T00430032  RH  092%=      5-min Rain = 0
KGO1 090828Z 28011KT 04/03 A3022 RMK A01 T00430031  RH  092%=      5-min Rain = 0
KGO1 090829Z 28012KT 04/03 A3022 RMK A01 T00420031  RH  093%=      5-min Rain = 0
KGO1 090830Z 28012KT 04/03 A3022 RMK A01 T00420031  RH  093%=      5-min Rain = 0
KGO1 090831Z 28012KT 04/03 A3022 RMK A01 T00420031  RH  093%=      5-min Rain = 0
KGO1 090832Z 28011KT 04/03 A3022 RMK A01 T00420031  RH  093%=      5-min Rain = 0
KGO1 090833Z 28011KT 04/03 A3022 RMK A01 T00420031  RH  093%=      5-min Rain = 0
KGO1 090834Z 28012KT 04/03 A3022 RMK A01 T00420031  RH  093%=      5-min Rain = 0
KGO1 090835Z 28012KT 04/03 A3022 RMK A01 T00420031  RH  093%=      5-min Rain = 0
KGO1 090836Z 28011KT 04/03 A3022 RMK A01 T00410031  RH  093%=      5-min Rain = 0
KGO1 090837Z 28011KT 04/03 A3022 RMK A01 T00410031  RH  093%=      5-min Rain = 0
KGO1 090838Z 28011KT 04/03 A3022 RMK A01 T00410030  RH  093%=      5-min Rain = 0
KGO1 090839Z 28012KT 04/03 A3022 RMK A01 T00410030  RH  093%=      5-min Rain = 0
KGO1 090840Z 28011KT 04/03 A3022 RMK A01 T00410031  RH  093%=      5-min Rain = 0
KGO1 090841Z 28012KT 04/03 A3022 RMK A01 T00410030  RH  093%=      5-min Rain = 0
KGO1 090842Z 28012KT 04/03 A3022 RMK A01 T00410030  RH  093%=      5-min Rain = 0
KGO1 090843Z 28012KT 04/03 A3022 RMK A01 T00410030  RH  093%=      5-min Rain = 0
KGO1 090844Z 28011KT 04/03 A3022 RMK A01 T00410030  RH  093%=      5-min Rain = 0
KGO1 090845Z 28011KT 04/03 A3022 RMK A01 T00410030  RH  093%=      5-min Rain = 0
KGO1 090846Z 28012KT 04/03 A3022 RMK A01 T00410030  RH  093%=      5-min Rain = 0
KGO1 090847Z 28012KT 04/03 A3022 RMK A01 T00410030  RH  093%=      5-min Rain = 0
KGO1 090848Z 28012KT 04/03 A3022 RMK A01 T00410031  RH  093%=      5-min Rain = 0
KGO1 090849Z 28011KT 04/03 A3022 RMK A01 T00420031  RH  092%=      5-min Rain = 0
KGO1 090850Z 28012KT 04/03 A3022 RMK A01 T00420030  RH  092%=      5-min Rain = 0
KGO1 090851Z 29012KT 04/03 A3022 RMK A01 T00420030  RH  092%=      5-min Rain = 0
KGO1 090852Z 29011KT 04/03 A3022 RMK A01 T00420030  RH  092%=      5-min Rain = 0
KGO1 090853Z 29012KT 04/03 A3022 RMK A01 T00420030  RH  092%=      5-min Rain = 0
KGO1 090854Z 29012KT 04/03 A3022 RMK A01 T00420030  RH  092%=      5-min Rain = 0
KGO1 090855Z 29011KT 04/03 A3022 RMK A01 T00420030  RH  092%=      5-min Rain = 0
KGO1 090856Z 28011KT 04/03 A3022 RMK A01 T00420030  RH  092%=      5-min Rain = 0
KGO1 090857Z 28010KT 04/03 A3022 RMK A01 T00410029  RH  092%=      5-min Rain = 0
KGO1 090858Z 28010KT 04/03 A3022 RMK A01 T00410029  RH  092%=      5-min Rain = 0
KGO1 090859Z 28010KT 04/03 A3022 RMK A01 T00400029  RH  092%=      5-min Rain = 0
KGO1 090900Z 28011KT 04/03 A3022 RMK A01 T00390028  RH  092%=      5-min Rain = 0
KGO1 090901Z 28011KT 04/03 A3022 RMK A01 T00390028  RH  093%=      5-min Rain = 0
KGO1 090902Z 28010KT 04/03 A3022 RMK A01 T00390028  RH  093%=      5-min Rain = 0
KGO1 090903Z 28010KT 04/03 A3022 RMK A01 T00390028  RH  093%=      5-min Rain = 0
KGO1 090904Z 29011KT 04/03 A3022 RMK A01 T00380028  RH  093%=      5-min Rain = 0
KGO1 090905Z 29012KT 04/03 A3022 RMK A01 T00390028  RH  093%=      5-min Rain = 0
KGO1 090906Z 28012KT 04/03 A3022 RMK A01 T00380028  RH  093%=      5-min Rain = 0
KGO1 090907Z 29013KT 04/03 A3022 RMK A01 T00380028  RH  093%=      5-min Rain = 0
KGO1 090908Z 28012KT 04/03 A3022 RMK A01 T00380028  RH  093%=      5-min Rain = 0
KGO1 090909Z 28012KT 04/03 A3022 RMK A01 T00380027  RH  093%=      5-min Rain = 0
KGO1 090910Z 28012KT 04/03 A3022 RMK A01 T00380027  RH  093%=      5-min Rain = 0
KGO1 090911Z 28012KT 04/03 A3022 RMK A01 T00380027  RH  093%=      5-min Rain = 0
KGO1 090912Z 28011KT 04/03 A3022 RMK A01 T00380027  RH  093%=      5-min Rain = 0
KGO1 090913Z 28010KT 04/03 A3022 RMK A01 T00380027  RH  093%=      5-min Rain = 0
KGO1 090914Z 28010KT 04/03 A3022 RMK A01 T00380028  RH  093%=      5-min Rain = 0
KGO1 090915Z 28009KT 04/03 A3022 RMK A01 T00380027  RH  093%=      5-min Rain = 0
KGO1 090916Z 28010KT 04/03 A3022 RMK A01 T00370027  RH  093%=      5-min Rain = 0
KGO1 090917Z 28009KT 04/03 A3022 RMK A01 T00370027  RH  093%=      5-min Rain = 0
KGO1 090918Z 28009KT 04/03 A3022 RMK A01 T00370027  RH  093%=      5-min Rain = 0
KGO1 090919Z 28009KT 04/03 A3022 RMK A01 T00360026  RH  093%=      5-min Rain = 0
KGO1 090920Z 28009KT 04/03 A3022 RMK A01 T00360026  RH  093%=      5-min Rain = 0
KGO1 090921Z 28010KT 04/03 A3021 RMK A01 T00360026  RH  093%=      5-min Rain = 0
KGO1 090922Z 28009KT 04/03 A3021 RMK A01 T00360026  RH  093%=      5-min Rain = 0
KGO1 090923Z 28009KT 04/03 A3021 RMK A01 T00360027  RH  094%=      5-min Rain = 0
KGO1 090924Z 28009KT 04/03 A3021 RMK A01 T00360027  RH  094%=      5-min Rain = 0
KGO1 090925Z 28008KT 04/03 A3021 RMK A01 T00360027  RH  094%=      5-min Rain = 0
KGO1 090926Z 28009KT 04/03 A3021 RMK A01 T00360027  RH  094%=      5-min Rain = 0
KGO1 090927Z 28010KT 04/03 A3021 RMK A01 T00360027  RH  094%=      5-min Rain = 0
KGO1 090928Z 28010KT 04/03 A3021 RMK A01 T00360027  RH  094%=      5-min Rain = 0
KGO1 090929Z 28010KT 04/03 A3021 RMK A01 T00360027  RH  094%=      5-min Rain = 0
KGO1 090930Z 28010KT 04/03 A3021 RMK A01 T00370027  RH  093%=      5-min Rain = 0
KGO1 090931Z 28009KT 04/03 A3021 RMK A01 T00360027  RH  094%=      5-min Rain = 0
KGO1 090932Z 28010KT 04/03 A3021 RMK A01 T00360027  RH  094%=      5-min Rain = 0
KGO1 090933Z 28010KT 04/03 A3021 RMK A01 T00360027  RH  094%=      5-min Rain = 0
KGO1 090934Z 28010KT 04/03 A3021 RMK A01 T00360026  RH  094%=      5-min Rain = 0
KGO1 090935Z 29011KT 04/03 A3021 RMK A01 T00360026  RH  094%=      5-min Rain = 0
KGO1 090936Z 28011KT 04/03 A3021 RMK A01 T00350026  RH  094%=      5-min Rain = 0
KGO1 090937Z 29012KT 04/03 A3021 RMK A01 T00360027  RH  094%=      5-min Rain = 0
KGO1 090938Z 28012KT 04/03 A3021 RMK A01 T00370028  RH  094%=      5-min Rain = 0
KGO1 090939Z 29011KT 04/03 A3021 RMK A01 T00370028  RH  094%=      5-min Rain = 0
KGO1 090940Z 29012KT 04/03 A3021 RMK A01 T00370028  RH  093%=      5-min Rain = 0
KGO1 090941Z 29012KT 04/03 A3021 RMK A01 T00370028  RH  093%=      5-min Rain = 0
KGO1 090942Z 29012KT 04/03 A3021 RMK A01 T00380028  RH  093%=      5-min Rain = 0
KGO1 090943Z 28012KT 04/03 A3021 RMK A01 T00380028  RH  093%=      5-min Rain = 0
KGO1 090944Z 29012KT 04/03 A3021 RMK A01 T00380027  RH  093%=      5-min Rain = 0
KGO1 090945Z 29012KT 04/03 A3021 RMK A01 T00380027  RH  093%=      5-min Rain = 0
KGO1 090946Z 28012KT 04/03 A3021 RMK A01 T00380027  RH  093%=      5-min Rain = 0
KGO1 090947Z 29011KT 04/03 A3021 RMK A01 T00380027  RH  093%=      5-min Rain = 0
KGO1 090948Z 29012KT 04/03 A3021 RMK A01 T00380027  RH  093%=      5-min Rain = 0
KGO1 090949Z 28012KT 04/03 A3021 RMK A01 T00380027  RH  093%=      5-min Rain = 0
KGO1 090950Z 29011KT 04/03 A3021 RMK A01 T00380027  RH  093%=      5-min Rain = 0
KGO1 090951Z 29012KT 04/03 A3021 RMK A01 T00380027  RH  093%=      5-min Rain = 0
KGO1 090952Z 28012KT 04/03 A3021 RMK A01 T00380027  RH  093%=      5-min Rain = 0
KGO1 090953Z 28012KT 04/03 A3021 RMK A01 T00380028  RH  093%=      5-min Rain = 0
KGO1 090954Z 28012KT 04/03 A3021 RMK A01 T00380028  RH  093%=      5-min Rain = 0
KGO1 090955Z 29012KT 04/03 A3021 RMK A01 T00380028  RH  093%=      5-min Rain = 0
KGO1 090956Z 29012KT 04/03 A3021 RMK A01 T00380028  RH  093%=      5-min Rain = 0
KGO1 090957Z 29012KT 04/03 A3021 RMK A01 T00390028  RH  093%=      5-min Rain = 0
KGO1 090958Z 29012KT 04/03 A3021 RMK A01 T00390028  RH  093%=      5-min Rain = 0
KGO1 090959Z 29012KT 04/03 A302 RMK A01 T00390029  RH  093%=      5-min Rain = 0
KGO1 091000Z 29011KT 04/03 A302 RMK A01 T00390029  RH  093%=      5-min Rain = 0
KGO1 091001Z 28011KT 04/03 A3021 RMK A01 T00390028  RH  093%=      5-min Rain = 0
KGO1 091002Z 29012KT 04/03 A302 RMK A01 T00390029  RH  093%=      5-min Rain = 0
KGO1 091003Z 28011KT 04/03 A302 RMK A01 T00390029  RH  093%=      5-min Rain = 0
KGO1 091004Z 28012KT 04/03 A302 RMK A01 T00400029  RH  093%=      5-min Rain = 0
KGO1 091005Z 29011KT 04/03 A302 RMK A01 T00400029  RH  093%=      5-min Rain = 0
KGO1 091006Z 29010KT 04/03 A302 RMK A01 T00400029  RH  093%=      5-min Rain = 0
KGO1 091007Z 28011KT 04/03 A302 RMK A01 T00400029  RH  093%=      5-min Rain = 0
KGO1 091008Z 29010KT 04/03 A302 RMK A01 T00400030  RH  093%=      5-min Rain = 0
KGO1 091009Z 29010KT 04/03 A302 RMK A01 T00400029  RH  093%=      5-min Rain = 0
KGO1 091010Z 29010KT 04/03 A302 RMK A01 T00390029  RH  093%=      5-min Rain = 0
KGO1 091011Z 29010KT 04/03 A302 RMK A01 T00390029  RH  093%=      5-min Rain = 0
KGO1 091012Z 29010KT 04/03 A302 RMK A01 T00390029  RH  093%=      5-min Rain = 0
KGO1 091013Z 29010KT 04/03 A302 RMK A01 T00390029  RH  093%=      5-min Rain = 0
KGO1 091014Z 29010KT 04/03 A302 RMK A01 T00390029  RH  093%=      5-min Rain = 0
KGO1 091015Z 29010KT 04/03 A302 RMK A01 T00400029  RH  093%=      5-min Rain = 0
KGO1 091016Z 29010KT 04/03 A302 RMK A01 T00390028  RH  093%=      5-min Rain = 0
KGO1 091017Z 29010KT 04/03 A302 RMK A01 T00390028  RH  093%=      5-min Rain = 0
KGO1 091018Z 29010KT 04/03 A302 RMK A01 T00390028  RH  093%=      5-min Rain = 0
KGO1 091019Z 29010KT 04/03 A302 RMK A01 T00380028  RH  093%=      5-min Rain = 0
KGO1 091020Z 29009KT 04/03 A302 RMK A01 T00380028  RH  093%=      5-min Rain = 0
KGO1 091021Z 29009KT 04/03 A302 RMK A01 T00380028  RH  093%=      5-min Rain = 0
KGO1 091022Z 28008KT 04/03 A302 RMK A01 T00380028  RH  093%=      5-min Rain = 0
KGO1 091023Z 29009KT 04/03 A302 RMK A01 T00380028  RH  093%=      5-min Rain = 0
KGO1 091024Z 29009KT 04/03 A302 RMK A01 T00370028  RH  093%=      5-min Rain = 0
KGO1 091025Z 29009KT 04/03 A302 RMK A01 T00370028  RH  093%=      5-min Rain = 0
KGO1 091026Z 29009KT 04/03 A302 RMK A01 T00370028  RH  093%=      5-min Rain = 0
KGO1 091027Z 29008KT 04/03 A302 RMK A01 T00380028  RH  093%=      5-min Rain = 0
KGO1 091028Z 29008KT 04/03 A302 RMK A01 T00380028  RH  093%=      5-min Rain = 0
KGO1 091029Z 28009KT 04/03 A302 RMK A01 T00380028  RH  093%=      5-min Rain = 0
KGO1 091030Z 28009KT 04/03 A302 RMK A01 T00380028  RH  093%=      5-min Rain = 0
KGO1 091031Z 28008KT 04/03 A302 RMK A01 T00380028  RH  094%=      5-min Rain = 0
KGO1 091032Z 28008KT 04/03 A302 RMK A01 T00380028  RH  093%=      5-min Rain = 0
KGO1 091033Z 28008KT 04/03 A302 RMK A01 T00380028  RH  093%=      5-min Rain = 0
KGO1 091034Z 28009KT 04/03 A302 RMK A01 T00380027  RH  093%=      5-min Rain = 0
KGO1 091035Z 28008KT 04/03 A302 RMK A01 T00380027  RH  093%=      5-min Rain = 0
KGO1 091036Z 28008KT 04/03 A302 RMK A01 T00370027  RH  093%=      5-min Rain = 0
KGO1 091037Z 28008KT 04/03 A302 RMK A01 T00370027  RH  093%=      5-min Rain = 0
KGO1 091038Z 28007KT 04/03 A302 RMK A01 T00370027  RH  093%=      5-min Rain = 0
KGO1 091039Z 27007KT 04/03 A302 RMK A01 T00370026  RH  093%=      5-min Rain = 0
KGO1 091040Z 27007KT 04/03 A302 RMK A01 T00360026  RH  093%=      5-min Rain = 0
KGO1 091041Z 27007KT 04/03 A302 RMK A01 T00360026  RH  093%=      5-min Rain = 0
KGO1 091042Z 27007KT 04/03 A302 RMK A01 T00360026  RH  093%=      5-min Rain = 0
KGO1 091043Z 27007KT 04/03 A302 RMK A01 T00350025  RH  093%=      5-min Rain = 0
KGO1 091044Z 28007KT 04/03 A302 RMK A01 T00350025  RH  094%=      5-min Rain = 0
KGO1 091045Z 28007KT 04/03 A302 RMK A01 T00350026  RH  094%=      5-min Rain = 0
KGO1 091046Z 28007KT 04/03 A302 RMK A01 T00350025  RH  094%=      5-min Rain = 0
KGO1 091047Z 28008KT 03/03 A302 RMK A01 T00340025  RH  094%=      5-min Rain = 0
KGO1 091048Z 28008KT 03/03 A302 RMK A01 T00340025  RH  094%=      5-min Rain = 0
KGO1 091049Z 28007KT 03/03 A302 RMK A01 T00340025  RH  094%=      5-min Rain = 0
KGO1 091050Z 28007KT 03/02 A302 RMK A01 T00330024  RH  094%=      5-min Rain = 0
KGO1 091051Z 28006KT 03/02 A302 RMK A01 T00330024  RH  094%=      5-min Rain = 0
KGO1 091052Z 28006KT 03/02 A302 RMK A01 T00330024  RH  094%=      5-min Rain = 0
KGO1 091053Z 28007KT 03/02 A302 RMK A01 T00330024  RH  094%=      5-min Rain = 0
KGO1 091054Z 28006KT 03/02 A302 RMK A01 T00330024  RH  094%=      5-min Rain = 0
KGO1 091055Z 28006KT 03/02 A302 RMK A01 T00330024  RH  094%=      5-min Rain = 0
KGO1 091056Z 28006KT 03/02 A302 RMK A01 T00330024  RH  094%=      5-min Rain = 0
KGO1 091057Z 28006KT 03/02 A302 RMK A01 T00320023  RH  094%=      5-min Rain = 0
KGO1 091058Z 28006KT 03/02 A302 RMK A01 T00320023  RH  094%=      5-min Rain = 0
KGO1 091059Z 28006KT 03/02 A302 RMK A01 T00310022  RH  094%=      5-min Rain = 0
KGO1 091100Z 28006KT 03/02 A302 RMK A01 T00310022  RH  094%=      5-min Rain = 0
KGO1 091101Z 29006KT 03/02 A302 RMK A01 T00300022  RH  094%=      5-min Rain = 0
KGO1 091102Z 29006KT 03/02 A302 RMK A01 T00310022  RH  094%=      5-min Rain = 0
KGO1 091103Z 29005KT 03/02 A302 RMK A01 T00310022  RH  094%=      5-min Rain = 0
KGO1 091104Z 30005KT 03/02 A3021 RMK A01 T00300022  RH  094%=      5-min Rain = 0
KGO1 091105Z 30004KT 03/02 A3021 RMK A01 T00310023  RH  094%=      5-min Rain = 0
KGO1 091106Z 30004KT 03/02 A3021 RMK A01 T00310023  RH  094%=      5-min Rain = 0
KGO1 091107Z 30004KT 03/02 A3021 RMK A01 T00310023  RH  094%=      5-min Rain = 0
KGO1 091108Z 30005KT 03/02 A3021 RMK A01 T00320024  RH  095%=      5-min Rain = 0
KGO1 091109Z 30005KT 03/02 A3021 RMK A01 T00320024  RH  095%=      5-min Rain = 0
KGO1 091110Z 29005KT 03/03 A302 RMK A01 T00330025  RH  094%=      5-min Rain = 0
KGO1 091111Z 29005KT 03/03 A302 RMK A01 T00340025  RH  094%=      5-min Rain = 0
KGO1 091112Z 29005KT 03/02 A302 RMK A01 T00340024  RH  093%=      5-min Rain = 0
KGO1 091113Z 29004KT 03/02 A302 RMK A01 T00340024  RH  093%=      5-min Rain = 0
KGO1 091114Z 29005KT 03/02 A302 RMK A01 T00340024  RH  093%=      5-min Rain = 0
KGO1 091115Z 29004KT 03/02 A302 RMK A01 T00330024  RH  093%=      5-min Rain = 0
KGO1 091116Z 29004KT 03/02 A302 RMK A01 T00330024  RH  094%=      5-min Rain = 0
KGO1 091117Z 29004KT 03/02 A302 RMK A01 T00330023  RH  094%=      5-min Rain = 0
KGO1 091118Z 29005KT 03/02 A302 RMK A01 T00330024  RH  094%=      5-min Rain = 0
KGO1 091119Z 29005KT 03/03 A302 RMK A01 T00330025  RH  094%=      5-min Rain = 0
KGO1 091120Z 28005KT 03/02 A302 RMK A01 T00330024  RH  094%=      5-min Rain = 0
KGO1 091121Z 28005KT 03/02 A302 RMK A01 T00320023  RH  094%=      5-min Rain = 0
KGO1 091122Z 28006KT 03/02 A302 RMK A01 T00320024  RH  094%=      5-min Rain = 0
KGO1 091123Z 28006KT 03/02 A302 RMK A01 T00320024  RH  095%=      5-min Rain = 0
KGO1 091124Z 29006KT 03/02 A302 RMK A01 T00320024  RH  094%=      5-min Rain = 0
KGO1 091125Z 29006KT 03/02 A302 RMK A01 T00320024  RH  094%=      5-min Rain = 0
KGO1 091126Z 29006KT 03/02 A302 RMK A01 T00320023  RH  094%=      5-min Rain = 0
KGO1 091127Z 29006KT 03/02 A3021 RMK A01 T00320023  RH  094%=      5-min Rain = 0
KGO1 091128Z 29006KT 03/02 A3021 RMK A01 T00310022  RH  094%=      5-min Rain = 0
KGO1 091129Z 30006KT 03/02 A3021 RMK A01 T00310022  RH  094%=      5-min Rain = 0
KGO1 091130Z 30006KT 03/02 A3021 RMK A01 T00300022  RH  094%=      5-min Rain = 0
KGO1 091131Z 29006KT 03/02 A3021 RMK A01 T00300022  RH  095%=      5-min Rain = 0
KGO1 091132Z 30006KT 03/02 A3021 RMK A01 T00300022  RH  095%=      5-min Rain = 0
KGO1 091133Z 30006KT 03/02 A3021 RMK A01 T00290021  RH  095%=      5-min Rain = 0
KGO1 091134Z 30006KT 03/02 A3021 RMK A01 T00290022  RH  095%=      5-min Rain = 0
KGO1 091135Z 30006KT 03/02 A3021 RMK A01 T00290022  RH  095%=      5-min Rain = 0
KGO1 091136Z 30006KT 03/02 A3021 RMK A01 T00290022  RH  095%=      5-min Rain = 0
KGO1 091137Z 29007KT 03/02 A3021 RMK A01 T00280021  RH  095%=      5-min Rain = 0
KGO1 091138Z 29007KT 03/02 A3021 RMK A01 T00280021  RH  095%=      5-min Rain = 0
KGO1 091139Z 30007KT 03/02 A3021 RMK A01 T00270020  RH  095%=      5-min Rain = 0
KGO1 091140Z 30008KT 03/02 A3021 RMK A01 T00270020  RH  095%=      5-min Rain = 0
KGO1 091141Z 30007KT 03/02 A3021 RMK A01 T00270020  RH  096%=      5-min Rain = 0
KGO1 091142Z 30006KT 03/02 A3021 RMK A01 T00260020  RH  096%=      5-min Rain = 0
KGO1 091143Z 30005KT 03/02 A3021 RMK A01 T00260020  RH  096%=      5-min Rain = 0
KGO1 091144Z 30005KT 03/02 A3021 RMK A01 T00260020  RH  096%=      5-min Rain = 0
KGO1 091145Z 30006KT 03/02 A3021 RMK A01 T00260020  RH  096%=      5-min Rain = 0
KGO1 091146Z 30005KT 03/02 A3021 RMK A01 T00250020  RH  096%=      5-min Rain = 0
KGO1 091147Z 30004KT 03/02 A3021 RMK A01 T00250020  RH  096%=      5-min Rain = 0
KGO1 091148Z 30004KT 03/02 A3021 RMK A01 T00250020  RH  096%=      5-min Rain = 0
KGO1 091149Z 29005KT 03/02 A3021 RMK A01 T00250020  RH  096%=      5-min Rain = 0
KGO1 091150Z 29005KT 03/02 A3021 RMK A01 T00250020  RH  096%=      5-min Rain = 0
KGO1 091151Z 29005KT 03/02 A3021 RMK A01 T00250020  RH  096%=      5-min Rain = 0
KGO1 091152Z 29004KT 03/02 A3021 RMK A01 T00250020  RH  097%=      5-min Rain = 0
KGO1 091153Z 29004KT 03/02 A3021 RMK A01 T00250020  RH  097%=      5-min Rain = 0
KGO1 091154Z 28003KT 03/02 A3021 RMK A01 T00250020  RH  097%=      5-min Rain = 0
KGO1 091155Z 29004KT 03/02 A3021 RMK A01 T00250020  RH  097%=      5-min Rain = 0
KGO1 091156Z 29003KT 03/02 A3021 RMK A01 T00250020  RH  097%=      5-min Rain = 0
KGO1 091157Z 28005KT 03/02 A3021 RMK A01 T00250020  RH  097%=      5-min Rain = 0
KGO1 091158Z 29006KT 03/02 A3021 RMK A01 T00250020  RH  097%=      5-min Rain = 0
KGO1 091159Z 29005KT 03/02 A3021 RMK A01 T00250020  RH  097%=      5-min Rain = 0
KGO1 091200Z 29005KT 03/02 A3021 RMK A01 T00250021  RH  097%=      5-min Rain = 0
KGO1 091201Z 29005KT 03/02 A3021 RMK A01 T00260021  RH  097%=      5-min Rain = 0
KGO1 091202Z 29005KT 03/02 A3021 RMK A01 T00260021  RH  097%=      5-min Rain = 0
KGO1 091203Z 29006KT 03/02 A3021 RMK A01 T00260021  RH  097%=      5-min Rain = 0
KGO1 091204Z 30006KT 03/02 A3021 RMK A01 T00250021  RH  097%=      5-min Rain = 0
KGO1 091205Z 30005KT 03/02 A3021 RMK A01 T00250021  RH  097%=      5-min Rain = 0
KGO1 091206Z 30005KT 03/02 A3021 RMK A01 T00260022  RH  097%=      5-min Rain = 0
KGO1 091207Z 30005KT 03/02 A3021 RMK A01 T00270023  RH  097%=      5-min Rain = 0
KGO1 091208Z 30004KT 03/02 A3021 RMK A01 T00270022  RH  097%=      5-min Rain = 0
KGO1 091209Z 30005KT 03/02 A3021 RMK A01 T00270022  RH  097%=      5-min Rain = 0
KGO1 091210Z 29004KT 03/02 A3021 RMK A01 T00270022  RH  097%=      5-min Rain = 0
KGO1 091211Z 29005KT 03/02 A3021 RMK A01 T00270022  RH  097%=      5-min Rain = 0
KGO1 091212Z 29005KT 03/02 A3021 RMK A01 T00270022  RH  097%=      5-min Rain = 0
KGO1 091213Z 29005KT 03/02 A3021 RMK A01 T00260022  RH  097%=      5-min Rain = 0
KGO1 091214Z 29006KT 03/02 A3021 RMK A01 T00270023  RH  097%=      5-min Rain = 0
KGO1 091215Z 29006KT 03/02 A3021 RMK A01 T00270022  RH  097%=      5-min Rain = 0
KGO1 091216Z 29006KT 03/02 A3021 RMK A01 T00270022  RH  097%=      5-min Rain = 0
KGO1 091217Z 29006KT 03/02 A3021 RMK A01 T00270023  RH  097%=      5-min Rain = 0
KGO1 091218Z 29006KT 03/02 A3021 RMK A01 T00270023  RH  097%=      5-min Rain = 0
KGO1 091219Z 29006KT 03/02 A3021 RMK A01 T00270023  RH  097%=      5-min Rain = 0
KGO1 091220Z 30005KT 03/02 A3021 RMK A01 T00280023  RH  097%=      5-min Rain = 0
KGO1 091221Z 30005KT 03/02 A3021 RMK A01 T00280023  RH  097%=      5-min Rain = 0
KGO1 091222Z 29005KT 03/02 A3021 RMK A01 T00280023  RH  097%=      5-min Rain = 0
KGO1 091223Z 30004KT 03/02 A3021 RMK A01 T00280023  RH  097%=      5-min Rain = 0
KGO1 091224Z 29004KT 03/02 A3021 RMK A01 T00270022  RH  097%=      5-min Rain = 0
KGO1 091225Z 29005KT 03/02 A3021 RMK A01 T00270023  RH  097%=      5-min Rain = 0
KGO1 091226Z 28005KT 03/02 A3021 RMK A01 T00270023  RH  097%=      5-min Rain = 0
KGO1 091227Z 28005KT 03/02 A3021 RMK A01 T00270023  RH  097%=      5-min Rain = 0
KGO1 091228Z 28005KT 03/02 A3021 RMK A01 T00270023  RH  097%=      5-min Rain = 0
KGO1 091229Z 28005KT 03/02 A3021 RMK A01 T00270023  RH  097%=      5-min Rain = 0
KGO1 091230Z 29006KT 03/02 A3022 RMK A01 T00270023  RH  097%=      5-min Rain = 0
KGO1 091231Z 28006KT 03/02 A3022 RMK A01 T00280023  RH  097%=      5-min Rain = 0
KGO1 091232Z 29006KT 03/02 A3022 RMK A01 T00270023  RH  097%=      5-min Rain = 0
KGO1 091233Z 29005KT 03/02 A3022 RMK A01 T00270023  RH  097%=      5-min Rain = 0
KGO1 091234Z 29005KT 03/02 A3022 RMK A01 T00270022  RH  097%=      5-min Rain = 0
KGO1 091235Z 29006KT 03/02 A3021 RMK A01 T00270023  RH  097%=      5-min Rain = 0
KGO1 091236Z 29006KT 03/02 A3021 RMK A01 T00270023  RH  097%=      5-min Rain = 0
KGO1 091237Z 29007KT 03/02 A3021 RMK A01 T00270022  RH  097%=      5-min Rain = 0
KGO1 091238Z 29007KT 03/02 A3021 RMK A01 T00270022  RH  096%=      5-min Rain = 0
KGO1 091239Z 29007KT 03/02 A3021 RMK A01 T00280023  RH  097%=      5-min Rain = 0
KGO1 091240Z 29007KT 03/02 A3021 RMK A01 T00280023  RH  097%=      5-min Rain = 0
KGO1 091241Z 29008KT 03/02 A3021 RMK A01 T00280023  RH  096%=      5-min Rain = 0
KGO1 091242Z 29007KT 03/02 A3021 RMK A01 T00290023  RH  096%=      5-min Rain = 0
KGO1 091243Z 29008KT 03/02 A3021 RMK A01 T00290023  RH  096%=      5-min Rain = 0
KGO1 091244Z 28008KT 03/02 A3021 RMK A01 T00290023  RH  096%=      5-min Rain = 0
KGO1 091245Z 29009KT 03/02 A3021 RMK A01 T00290024  RH  096%=      5-min Rain = 0
KGO1 091246Z 29009KT 03/02 A3021 RMK A01 T00300024  RH  096%=      5-min Rain = 0
KGO1 091247Z 28009KT 03/03 A3021 RMK A01 T00310025  RH  096%=      5-min Rain = 0
KGO1 091248Z 28010KT 03/02 A3021 RMK A01 T00310024  RH  096%=      5-min Rain = 0
KGO1 091249Z 28010KT 03/02 A3021 RMK A01 T00310024  RH  095%=      5-min Rain = 0
KGO1 091250Z 28010KT 03/02 A3021 RMK A01 T00310024  RH  095%=      5-min Rain = 0
KGO1 091251Z 28011KT 03/03 A3021 RMK A01 T00320025  RH  096%=      5-min Rain = 0
KGO1 091252Z 28010KT 03/03 A3021 RMK A01 T00330026  RH  095%=      5-min Rain = 0
KGO1 091253Z 28010KT 03/03 A3021 RMK A01 T00330025  RH  095%=      5-min Rain = 0
KGO1 091254Z 28011KT 03/03 A3021 RMK A01 T00330025  RH  095%=      5-min Rain = 0
KGO1 091255Z 28011KT 03/03 A3021 RMK A01 T00330025  RH  095%=      5-min Rain = 0
KGO1 091256Z 29011KT 03/03 A3021 RMK A01 T00340026  RH  094%=      5-min Rain = 0
KGO1 091257Z 29011KT 03/03 A3021 RMK A01 T00340026  RH  094%=      5-min Rain = 0
KGO1 091258Z 29010KT 04/03 A3021 RMK A01 T00350026  RH  094%=      5-min Rain = 0
KGO1 091259Z 29011KT 03/03 A3021 RMK A01 T00340025  RH  094%=      5-min Rain = 0
KGO1 091300Z 29011KT 03/03 A3021 RMK A01 T00340025  RH  094%=      5-min Rain = 0
KGO1 091301Z 29011KT 03/03 A3021 RMK A01 T00340025  RH  094%=      5-min Rain = 0
KGO1 091302Z 29011KT 03/03 A3021 RMK A01 T00340026  RH  094%=      5-min Rain = 0
KGO1 091303Z 29010KT 03/03 A3021 RMK A01 T00340025  RH  094%=      5-min Rain = 0
KGO1 091304Z 29010KT 03/03 A3021 RMK A01 T00340025  RH  094%=      5-min Rain = 0
KGO1 091305Z 29010KT 03/03 A3021 RMK A01 T00340025  RH  094%=      5-min Rain = 0
KGO1 091306Z 29010KT 03/03 A3021 RMK A01 T00340025  RH  094%=      5-min Rain = 0
KGO1 091307Z 28011KT 03/03 A3021 RMK A01 T00340025  RH  094%=      5-min Rain = 0
KGO1 091308Z 28010KT 03/03 A3021 RMK A01 T00330025  RH  094%=      5-min Rain = 0
KGO1 091309Z 28010KT 03/02 A3021 RMK A01 T00330024  RH  094%=      5-min Rain = 0
KGO1 091310Z 29010KT 03/02 A3021 RMK A01 T00320024  RH  095%=      5-min Rain = 0
KGO1 091311Z 29010KT 03/03 A3021 RMK A01 T00330025  RH  095%=      5-min Rain = 0
KGO1 091312Z 29010KT 03/03 A3021 RMK A01 T00320025  RH  095%=      5-min Rain = 0
KGO1 091313Z 29010KT 03/03 A3021 RMK A01 T00320025  RH  095%=      5-min Rain = 0
KGO1 091314Z 29010KT 03/03 A3021 RMK A01 T00320025  RH  095%=      5-min Rain = 0
KGO1 091315Z 29010KT 03/03 A3021 RMK A01 T00320025  RH  095%=      5-min Rain = 0
KGO1 091316Z 29010KT 03/03 A3022 RMK A01 T00320025  RH  095%=      5-min Rain = 0
KGO1 091317Z 29010KT 03/03 A3022 RMK A01 T00320025  RH  096%=      5-min Rain = 0
KGO1 091318Z 29010KT 03/03 A3022 RMK A01 T00320026  RH  096%=      5-min Rain = 0
KGO1 091319Z 29010KT 03/03 A3022 RMK A01 T00330026  RH  095%=      5-min Rain = 0
KGO1 091320Z 29010KT 03/03 A3022 RMK A01 T00330025  RH  095%=      5-min Rain = 0
KGO1 091321Z 29009KT 03/03 A3022 RMK A01 T00330025  RH  095%=      5-min Rain = 0
KGO1 091322Z 29009KT 03/03 A3022 RMK A01 T00330025  RH  095%=      5-min Rain = 0
KGO1 091323Z 29008KT 03/03 A3022 RMK A01 T00330026  RH  095%=      5-min Rain = 0
KGO1 091324Z 29008KT 03/03 A3022 RMK A01 T00330026  RH  095%=      5-min Rain = 0
KGO1 091325Z 29007KT 03/03 A3022 RMK A01 T00330025  RH  095%=      5-min Rain = 0
KGO1 091326Z 29006KT 03/03 A3022 RMK A01 T00330025  RH  094%=      5-min Rain = 0
KGO1 091327Z 29005KT 03/03 A3022 RMK A01 T00330025  RH  094%=      5-min Rain = 0
KGO1 091328Z 28006KT 03/03 A3022 RMK A01 T00330025  RH  094%=      5-min Rain = 0
KGO1 091329Z 28006KT 03/03 A3022 RMK A01 T00330025  RH  094%=      5-min Rain = 0
KGO1 091330Z 28006KT 03/03 A3022 RMK A01 T00340026  RH  094%=      5-min Rain = 0
KGO1 091331Z 29006KT 04/03 A3022 RMK A01 T00350026  RH  094%=      5-min Rain = 0
KGO1 091332Z 29006KT 04/03 A3022 RMK A01 T00350026  RH  094%=      5-min Rain = 0
KGO1 091333Z 29006KT 04/03 A3022 RMK A01 T00350026  RH  094%=      5-min Rain = 0
KGO1 091334Z 29006KT 04/03 A3022 RMK A01 T00350026  RH  094%=      5-min Rain = 0
KGO1 091335Z 29006KT 04/03 A3022 RMK A01 T00350026  RH  093%=      5-min Rain = 0
KGO1 091336Z 30007KT 04/03 A3022 RMK A01 T00350025  RH  093%=      5-min Rain = 0
KGO1 091337Z 30006KT 04/03 A3022 RMK A01 T00350025  RH  093%=      5-min Rain = 0
KGO1 091338Z 30006KT 04/03 A3022 RMK A01 T00350026  RH  093%=      5-min Rain = 0
KGO1 091339Z 30005KT 04/03 A3022 RMK A01 T00360026  RH  093%=      5-min Rain = 0
KGO1 091340Z 30006KT 04/03 A3022 RMK A01 T00360026  RH  093%=      5-min Rain = 0
KGO1 091341Z 29007KT 04/03 A3022 RMK A01 T00360026  RH  093%=      5-min Rain = 0
KGO1 091342Z 29007KT 04/03 A3022 RMK A01 T00360026  RH  093%=      5-min Rain = 0
KGO1 091343Z 29007KT 04/03 A3022 RMK A01 T00360026  RH  093%=      5-min Rain = 0
KGO1 091344Z 29008KT 04/03 A3022 RMK A01 T00360026  RH  093%=      5-min Rain = 0
KGO1 091345Z 29008KT 04/03 A3022 RMK A01 T00360026  RH  093%=      5-min Rain = 0
KGO1 091346Z 29007KT 04/03 A3022 RMK A01 T00360026  RH  093%=      5-min Rain = 0
KGO1 091347Z 29007KT 04/03 A3022 RMK A01 T00360027  RH  093%=      5-min Rain = 0
KGO1 091348Z 29008KT 04/03 A3022 RMK A01 T00360027  RH  094%=      5-min Rain = 0
KGO1 091349Z 29008KT 04/03 A3022 RMK A01 T00370028  RH  094%=      5-min Rain = 0
KGO1 091350Z 30009KT 04/03 A3022 RMK A01 T00380029  RH  093%=      5-min Rain = 0
KGO1 091351Z 29008KT 04/03 A3022 RMK A01 T00390029  RH  093%=      5-min Rain = 0
KGO1 091352Z 30008KT 04/03 A3022 RMK A01 T00400030  RH  093%=      5-min Rain = 0
KGO1 091353Z 30009KT 04/03 A3022 RMK A01 T00410030  RH  092%=      5-min Rain = 0
KGO1 091354Z 29009KT 04/03 A3022 RMK A01 T00420030  RH  092%=      5-min Rain = 0
KGO1 091355Z 29010KT 04/03 A3022 RMK A01 T00430031  RH  092%=      5-min Rain = 0
KGO1 091356Z 29010KT 04/03 A3022 RMK A01 T00440031  RH  092%=      5-min Rain = 0
KGO1 091357Z 29011KT 05/03 A3022 RMK A01 T00450032  RH  091%=      5-min Rain = 0
KGO1 091358Z 29010KT 05/03 A3022 RMK A01 T00450032  RH  091%=      5-min Rain = 0
KGO1 091359Z 29011KT 05/03 A3022 RMK A01 T00460033  RH  091%=      5-min Rain = 0
KGO1 091400Z 29011KT 05/03 A3022 RMK A01 T00470033  RH  091%=      5-min Rain = 0
KGO1 091401Z 29010KT 05/03 A3022 RMK A01 T00470033  RH  090%=      5-min Rain = 0
KGO1 091402Z 29011KT 05/03 A3022 RMK A01 T00480033  RH  090%=      5-min Rain = 0
KGO1 091403Z 29010KT 05/03 A3022 RMK A01 T00490034  RH  090%=      5-min Rain = 0
KGO1 091404Z 29010KT 05/03 A3022 RMK A01 T00490034  RH  090%=      5-min Rain = 0
KGO1 091405Z 29011KT 05/03 A3022 RMK A01 T00500034  RH  089%=      5-min Rain = 0
KGO1 091406Z 29010KT 05/04 A3022 RMK A01 T00510035  RH  089%=      5-min Rain = 0
KGO1 091407Z 30009KT 05/04 A3022 RMK A01 T00520035  RH  089%=      5-min Rain = 0
KGO1 091408Z 30010KT 05/04 A3022 RMK A01 T00520036  RH  089%=      5-min Rain = 0
KGO1 091409Z 30009KT 05/04 A3022 RMK A01 T00530036  RH  089%=      5-min Rain = 0
KGO1 091410Z 29009KT 05/04 A3022 RMK A01 T00540036  RH  088%=      5-min Rain = 0
KGO1 091411Z 30009KT 05/04 A3022 RMK A01 T00540036  RH  088%=      5-min Rain = 0
KGO1 091412Z 29008KT 06/04 A3022 RMK A01 T00550037  RH  088%=      5-min Rain = 0
KGO1 091413Z 29008KT 06/04 A3022 RMK A01 T00560037  RH  087%=      5-min Rain = 0
KGO1 091414Z 29009KT 06/04 A3022 RMK A01 T00560036  RH  087%=      5-min Rain = 0
KGO1 091415Z 28008KT 06/04 A3022 RMK A01 T00570038  RH  087%=      5-min Rain = 0
KGO1 091416Z 29007KT 06/04 A3022 RMK A01 T00580038  RH  087%=      5-min Rain = 0
KGO1 091417Z 28008KT 06/04 A3022 RMK A01 T00580039  RH  087%=      5-min Rain = 0
KGO1 091418Z 29007KT 06/04 A3022 RMK A01 T00590040  RH  087%=      5-min Rain = 0
KGO1 091419Z 29006KT 06/04 A3022 RMK A01 T00600040  RH  087%=      5-min Rain = 0
KGO1 091420Z 29006KT 06/04 A3022 RMK A01 T00620041  RH  087%=      5-min Rain = 0
KGO1 091421Z 29006KT 06/04 A3023 RMK A01 T00630042  RH  087%=      5-min Rain = 0
KGO1 091422Z 29006KT 06/04 A3023 RMK A01 T00640042  RH  086%=      5-min Rain = 0
KGO1 091423Z 29006KT 07/04 A3023 RMK A01 T00650042  RH  086%=      5-min Rain = 0
KGO1 091424Z 29005KT 07/04 A3023 RMK A01 T00660044  RH  086%=      5-min Rain = 0
KGO1 091425Z 29006KT 07/04 A3023 RMK A01 T00670044  RH  085%=      5-min Rain = 0
KGO1 091426Z 29007KT 07/04 A3023 RMK A01 T00670043  RH  085%=      5-min Rain = 0
KGO1 091427Z 30008KT 07/04 A3023 RMK A01 T00680043  RH  084%=      5-min Rain = 0
KGO1 091428Z 30006KT 07/04 A3023 RMK A01 T00670042  RH  084%=      5-min Rain = 0
KGO1 091429Z 30007KT 07/04 A3023 RMK A01 T00680044  RH  085%=      5-min Rain = 0
KGO1 091430Z 30009KT 07/04 A3023 RMK A01 T00690044  RH  084%=      5-min Rain = 0
KGO1 091431Z 30009KT 07/04 A3023 RMK A01 T00690044  RH  084%=      5-min Rain = 0
KGO1 091432Z 30009KT 07/04 A3023 RMK A01 T00690044  RH  084%=      5-min Rain = 0
KGO1 091433Z 30009KT 07/04 A3023 RMK A01 T00690044  RH  084%=      5-min Rain = 0
KGO1 091434Z 30009KT 07/04 A3023 RMK A01 T00690044  RH  084%=      5-min Rain = 0
KGO1 091435Z 29009KT 07/05 A3023 RMK A01 T00690046  RH  085%=      5-min Rain = 0
KGO1 091436Z 29009KT 07/05 A3023 RMK A01 T00700046  RH  085%=      5-min Rain = 0
KGO1 091437Z 29010KT 07/05 A3023 RMK A01 T00710047  RH  085%=      5-min Rain = 0
KGO1 091438Z 29010KT 07/05 A3023 RMK A01 T00710046  RH  084%=      5-min Rain = 0
KGO1 091439Z 29010KT 07/05 A3023 RMK A01 T00720047  RH  084%=      5-min Rain = 0
KGO1 091440Z 29009KT 07/05 A3023 RMK A01 T00730048  RH  084%=      5-min Rain = 0
KGO1 091441Z 29010KT 07/05 A3023 RMK A01 T00740050  RH  085%=      5-min Rain = 0
KGO1 091442Z 30010KT 07/05 A3023 RMK A01 T00740049  RH  084%=      5-min Rain = 0
KGO1 091443Z 29010KT 08/05 A3023 RMK A01 T00750048  RH  083%=      5-min Rain = 0
KGO1 091444Z 30009KT 08/05 A3023 RMK A01 T00760049  RH  083%=      5-min Rain = 0
KGO1 091445Z 30008KT 08/05 A3023 RMK A01 T00770051  RH  084%=      5-min Rain = 0
KGO1 091446Z 30008KT 08/05 A3023 RMK A01 T00780050  RH  083%=      5-min Rain = 0
KGO1 091447Z 30008KT 08/05 A3023 RMK A01 T00790051  RH  083%=      5-min Rain = 0
KGO1 091448Z 30009KT 08/05 A3023 RMK A01 T00790051  RH  082%=      5-min Rain = 0
KGO1 091449Z 30008KT 08/05 A3023 RMK A01 T00800053  RH  083%=      5-min Rain = 0
KGO1 091450Z 30010KT 08/05 A3023 RMK A01 T00810052  RH  082%=      5-min Rain = 0
KGO1 091451Z 30009KT 08/05 A3023 RMK A01 T00820052  RH  081%=      5-min Rain = 0
KGO1 091452Z 30009KT 08/05 A3023 RMK A01 T00820052  RH  081%=      5-min Rain = 0
KGO1 091453Z 30009KT 08/05 A3023 RMK A01 T00830054  RH  082%=      5-min Rain = 0
KGO1 091454Z 31008KT 08/06 A3024 RMK A01 T00840055  RH  082%=      5-min Rain = 0
KGO1 091455Z 30009KT 09/06 A3024 RMK A01 T00860056  RH  082%=      5-min Rain = 0
KGO1 091456Z 30009KT 09/06 A3024 RMK A01 T00870057  RH  082%=      5-min Rain = 0
KGO1 091457Z 30010KT 09/06 A3024 RMK A01 T00880058  RH  081%=      5-min Rain = 0
KGO1 091458Z 30010KT 09/06 A3024 RMK A01 T00890057  RH  080%=      5-min Rain = 0
KGO1 091459Z 29009KT 09/06 A3023 RMK A01 T00910059  RH  080%=      5-min Rain = 0
KGO1 091500Z 30008KT 09/06 A3023 RMK A01 T00920060  RH  080%=      5-min Rain = 0
KGO1 091501Z 29009KT 10/06 A3024 RMK A01 T00950064  RH  081%=      5-min Rain = 0
KGO1 091502Z 30009KT 10/06 A3024 RMK A01 T00960063  RH  080%=      5-min Rain = 0
KGO1 091503Z 29009KT 10/06 A3024 RMK A01 T00980062  RH  078%=      5-min Rain = 0
KGO1 091504Z 30008KT 10/06 A3024 RMK A01 T00980060  RH  077%=      5-min Rain = 0
KGO1 091505Z 29008KT 10/06 A3024 RMK A01 T01000063  RH  078%=      5-min Rain = 0
KGO1 091506Z 30008KT 10/07 A3024 RMK A01 T01020065  RH  078%=      5-min Rain = 0
KGO1 091507Z 30009KT 10/07 A3024 RMK A01 T01030065  RH  077%=      5-min Rain = 0
KGO1 091508Z 30010KT 10/06 A3024 RMK A01 T01040063  RH  075%=      5-min Rain = 0
KGO1 091509Z 30011KT 10/06 A3024 RMK A01 T01040063  RH  076%=      5-min Rain = 0
KGO1 091510Z 30010KT 10/06 A3024 RMK A01 T01040062  RH  075%=      5-min Rain = 0
KGO1 091511Z 29010KT 10/06 A3024 RMK A01 T01040064  RH  076%=      5-min Rain = 0
KGO1 091512Z 29010KT 11/06 A3024 RMK A01 T01050064  RH  076%=      5-min Rain = 0
KGO1 091513Z 29010KT 11/07 A3024 RMK A01 T01060066  RH  076%=      5-min Rain = 0
KGO1 091514Z 29009KT 11/07 A3024 RMK A01 T01070067  RH  077%=      5-min Rain = 0
KGO1 091515Z 29008KT 11/07 A3024 RMK A01 T01080068  RH  076%=      5-min Rain = 0
KGO1 091516Z 29008KT 11/07 A3024 RMK A01 T01100072  RH  078%=      5-min Rain = 0
KGO1 091517Z 30008KT 11/07 A3024 RMK A01 T01120074  RH  077%=      5-min Rain = 0
KGO1 091518Z 30007KT 11/07 A3024 RMK A01 T01140073  RH  076%=      5-min Rain = 0
KGO1 091519Z 30007KT 12/07 A3024 RMK A01 T01150074  RH  076%=      5-min Rain = 0
KGO1 091520Z 30007KT 12/08 A3024 RMK A01 T01170075  RH  076%=      5-min Rain = 0
KGO1 091521Z 30008KT 12/07 A3023 RMK A01 T01190074  RH  074%=      5-min Rain = 0
KGO1 091522Z 30009KT 12/07 A3023 RMK A01 T01200072  RH  072%=      5-min Rain = 0
KGO1 091523Z 29009KT 12/07 A3023 RMK A01 T01220070  RH  071%=      5-min Rain = 0
KGO1 091524Z 29008KT 12/07 A3023 RMK A01 T01230073  RH  071%=      5-min Rain = 0
KGO1 091525Z 29009KT 13/07 A3023 RMK A01 T01250074  RH  071%=      5-min Rain = 0
KGO1 091526Z 29009KT 13/08 A3023 RMK A01 T01270076  RH  071%=      5-min Rain = 0
KGO1 091527Z 29008KT 13/07 A3023 RMK A01 T01290074  RH  069%=      5-min Rain = 0
KGO1 091528Z 29009KT 13/07 A3023 RMK A01 T01300073  RH  068%=      5-min Rain = 0
KGO1 091529Z 29010KT 13/07 A3023 RMK A01 T01300070  RH  067%=      5-min Rain = 0
KGO1 091530Z 30010KT 13/07 A3023 RMK A01 T01300070  RH  067%=      5-min Rain = 0
KGO1 091531Z 30009KT 13/07 A3023 RMK A01 T01310071  RH  067%=      5-min Rain = 0
KGO1 091532Z 30008KT 13/07 A3023 RMK A01 T01320071  RH  066%=      5-min Rain = 0
KGO1 091533Z 30007KT 13/07 A3023 RMK A01 T01330072  RH  067%=      5-min Rain = 0
KGO1 091534Z 29007KT 14/08 A3023 RMK A01 T01350075  RH  067%=      5-min Rain = 0
KGO1 091535Z 30008KT 14/08 A3023 RMK A01 T01370075  RH  066%=      5-min Rain = 0
KGO1 091536Z 30007KT 14/07 A3023 RMK A01 T01390073  RH  064%=      5-min Rain = 0
KGO1 091537Z 30008KT 14/08 A3023 RMK A01 T01410075  RH  064%=      5-min Rain = 0
KGO1 091538Z 30007KT 14/07 A3024 RMK A01 T01420074  RH  063%=      5-min Rain = 0
KGO1 091539Z 30007KT 14/07 A3023 RMK A01 T01430074  RH  064%=      5-min Rain = 0
KGO1 091540Z 30006KT 14/08 A3023 RMK A01 T01430075  RH  063%=      5-min Rain = 0
KGO1 091541Z 30005KT 14/08 A3023 RMK A01 T01430077  RH  064%=      5-min Rain = 0
KGO1 091542Z 30006KT 14/08 A3023 RMK A01 T01440075  RH  063%=      5-min Rain = 0
KGO1 091543Z 31006KT 15/07 A3023 RMK A01 T01450074  RH  062%=      5-min Rain = 0
KGO1 091544Z 31006KT 15/07 A3023 RMK A01 T01450074  RH  062%=      5-min Rain = 0
KGO1 091545Z 31006KT 15/07 A3023 RMK A01 T01450074  RH  062%=      5-min Rain = 0
KGO1 091546Z 31005KT 15/08 A3023 RMK A01 T01460076  RH  063%=      5-min Rain = 0
KGO1 091547Z 31006KT 15/08 A3023 RMK A01 T01480076  RH  062%=      5-min Rain = 0
KGO1 091548Z 31007KT 15/07 A3023 RMK A01 T01480074  RH  061%=      5-min Rain = 0
KGO1 091549Z 31007KT 15/08 A3023 RMK A01 T01470075  RH  062%=      5-min Rain = 0
KGO1 091550Z 31007KT 15/07 A3023 RMK A01 T01480074  RH  061%=      5-min Rain = 0
KGO1 091551Z 31006KT 15/08 A3023 RMK A01 T01490075  RH  061%=      5-min Rain = 0
KGO1 091552Z 31006KT 15/08 A3023 RMK A01 T01500076  RH  061%=      5-min Rain = 0
KGO1 091553Z 30006KT 15/08 A3023 RMK A01 T01510075  RH  060%=      5-min Rain = 0
KGO1 091554Z 31005KT 15/08 A3023 RMK A01 T01510076  RH  061%=      5-min Rain = 0
KGO1 091555Z 30005KT 15/08 A3023 RMK A01 T01520077  RH  061%=      5-min Rain = 0
KGO1 091556Z 30005KT 16/08 A3023 RMK A01 T01550079  RH  060%=      5-min Rain = 0
KGO1 091557Z 30005KT 16/08 A3023 RMK A01 T01570076  RH  058%=      5-min Rain = 0
KGO1 091558Z 29006KT 16/07 A3023 RMK A01 T01590074  RH  057%=      5-min Rain = 0
KGO1 091559Z 30005KT 16/08 A3023 RMK A01 T01590075  RH  057%=      5-min Rain = 0
KGO1 091600Z 30006KT 16/07 A3023 RMK A01 T01600074  RH  057%=      5-min Rain = 0
KGO1 091601Z 31005KT 16/07 A3023 RMK A01 T01610072  RH  056%=      5-min Rain = 0
KGO1 091602Z 30005KT 16/07 A3023 RMK A01 T01600074  RH  056%=      5-min Rain = 0
KGO1 091603Z 30005KT 16/07 A3023 RMK A01 T01620074  RH  056%=      5-min Rain = 0
KGO1 091604Z 30006KT 16/07 A3023 RMK A01 T01620074  RH  056%=      5-min Rain = 0
KGO1 091605Z 31004KT 16/08 A3023 RMK A01 T01640075  RH  055%=      5-min Rain = 0
KGO1 091606Z 31006KT 17/07 A3023 RMK A01 T01660073  RH  054%=      5-min Rain = 0
KGO1 091607Z 31006KT 17/07 A3023 RMK A01 T01670073  RH  054%=      5-min Rain = 0
KGO1 091608Z 31005KT 17/07 A3023 RMK A01 T01670071  RH  053%=      5-min Rain = 0
KGO1 091609Z 31005KT 17/07 A3023 RMK A01 T01670073  RH  054%=      5-min Rain = 0
KGO1 091610Z 31004KT 17/08 A3023 RMK A01 T01680076  RH  055%=      5-min Rain = 0
KGO1 091611Z 29005KT 17/08 A3023 RMK A01 T01690077  RH  054%=      5-min Rain = 0
KGO1 091612Z 32004KT 17/08 A3023 RMK A01 T01720077  RH  054%=      5-min Rain = 0
KGO1 091613Z 30005KT 17/08 A3023 RMK A01 T01740076  RH  053%=      5-min Rain = 0
KGO1 091614Z 30005KT 18/08 A3023 RMK A01 T01760076  RH  052%=      5-min Rain = 0
KGO1 091615Z 30004KT 18/08 A3023 RMK A01 T01780077  RH  052%=      5-min Rain = 0
KGO1 091616Z 30006KT 18/07 A3023 RMK A01 T01780073  RH  050%=      5-min Rain = 0
KGO1 091617Z 30005KT 18/07 A3023 RMK A01 T01790070  RH  049%=      5-min Rain = 0
KGO1 091618Z 30005KT 18/07 A3023 RMK A01 T01780072  RH  050%=      5-min Rain = 0
KGO1 091619Z 30004KT 18/07 A3023 RMK A01 T01780071  RH  049%=      5-min Rain = 0
KGO1 091620Z 31004KT 18/07 A3023 RMK A01 T01800073  RH  050%=      5-min Rain = 0
KGO1 091621Z 31005KT 18/07 A3023 RMK A01 T01810072  RH  049%=      5-min Rain = 0
KGO1 091622Z 31006KT 18/07 A3023 RMK A01 T01820072  RH  048%=      5-min Rain = 0
KGO1 091623Z 30004KT 18/07 A3023 RMK A01 T01820068  RH  047%=      5-min Rain = 0
KGO1 091624Z 29004KT 18/07 A3023 RMK A01 T01820073  RH  049%=      5-min Rain = 0
KGO1 091625Z 30005KT 18/08 A3023 RMK A01 T01840075  RH  049%=      5-min Rain = 0
KGO1 091626Z 30004KT 19/07 A3023 RMK A01 T01860071  RH  047%=      5-min Rain = 0
KGO1 091627Z 30004KT 19/07 A3023 RMK A01 T01870071  RH  047%=      5-min Rain = 0
KGO1 091628Z 30005KT 19/06 A3023 RMK A01 T01880063  RH  044%=      5-min Rain = 0
KGO1 091629Z 30005KT 19/07 A3023 RMK A01 T01880065  RH  045%=      5-min Rain = 0
KGO1 091630Z 29005KT 19/07 A3023 RMK A01 T01880066  RH  045%=      5-min Rain = 0
KGO1 091631Z 30005KT 19/07 A3023 RMK A01 T01880066  RH  045%=      5-min Rain = 0
KGO1 091632Z 31004KT 19/07 A3023 RMK A01 T01890065  RH  044%=      5-min Rain = 0
KGO1 091633Z 30004KT 19/07 A3023 RMK A01 T01890067  RH  045%=      5-min Rain = 0
KGO1 091634Z 29004KT 19/07 A3023 RMK A01 T01900067  RH  045%=      5-min Rain = 0
KGO1 091635Z 29004KT 19/06 A3023 RMK A01 T01910064  RH  044%=      5-min Rain = 0
KGO1 091636Z 30003KT 19/06 A3023 RMK A01 T01930063  RH  043%=      5-min Rain = 0
KGO1 091637Z 32003KT 19/07 A3023 RMK A01 T01940065  RH  043%=      5-min Rain = 0
KGO1 091638Z 30003KT 20/07 A3023 RMK A01 T01950067  RH  043%=      5-min Rain = 0
KGO1 091639Z 28004KT 20/06 A3023 RMK A01 T01970061  RH  041%=      5-min Rain = 0
KGO1 091640Z 28004KT 20/07 A3023 RMK A01 T01980065  RH  042%=      5-min Rain = 0
KGO1 091641Z 28003KT 20/06 A3023 RMK A01 T01980063  RH  041%=      5-min Rain = 0
KGO1 091642Z 28003KT 20/07 A3023 RMK A01 T01980066  RH  042%=      5-min Rain = 0
KGO1 091643Z 29003KT 20/06 A3023 RMK A01 T01990061  RH  041%=      5-min Rain = 0
KGO1 091644Z 29003KT 20/06 A3023 RMK A01 T02010064  RH  041%=      5-min Rain = 0
KGO1 091645Z 28003KT 20/06 A3023 RMK A01 T02030056  RH  038%=      5-min Rain = 0
KGO1 091646Z 27001KT 20/05 A3023 RMK A01 T02030048  RH  036%=      5-min Rain = 0
KGO1 091647Z 27003KT 20/05 A3023 RMK A01 T02030051  RH  037%=      5-min Rain = 0
KGO1 091648Z 26001KT 20/05 A3023 RMK A01 T02030053  RH  038%=      5-min Rain = 0
KGO1 091649Z 32002KT 20/06 A3023 RMK A01 T02040055  RH  038%=      5-min Rain = 0
KGO1 091650Z 30002KT 21/05 A3022 RMK A01 T02050050  RH  036%=      5-min Rain = 0
KGO1 091651Z 29002KT 21/05 A3022 RMK A01 T02060051  RH  036%=      5-min Rain = 0
KGO1 091652Z 29002KT 21/05 A3022 RMK A01 T02080054  RH  036%=      5-min Rain = 0
KGO1 091653Z 25002KT 21/05 A3022 RMK A01 T02090050  RH  035%=      5-min Rain = 0
KGO1 091654Z 25002KT 21/04 A3022 RMK A01 T02090041  RH  033%=      5-min Rain = 0
KGO1 091655Z 26003KT 21/05 A3022 RMK A01 T02100050  RH  035%=      5-min Rain = 0
KGO1 091656Z 27003KT 21/05 A3022 RMK A01 T02090047  RH  034%=      5-min Rain = 0
KGO1 091657Z 24003KT 21/04 A3022 RMK A01 T02090036  RH  032%=      5-min Rain = 0
KGO1 091658Z 24003KT 21/02 A3022 RMK A01 T02090023  RH  029%=      5-min Rain = 0
KGO1 091659Z 23003KT 21/02 A3022 RMK A01 T02080021  RH  029%=      5-min Rain = 0
KGO1 091700Z 23001KT 21/02 A3022 RMK A01 T02090021  RH  029%=      5-min Rain = 0
KGO1 091701Z 26002KT 21/02 A3022 RMK A01 T02100022  RH  029%=      5-min Rain = 0
KGO1 091702Z 28002KT 21/03 A3022 RMK A01 T02100030  RH  030%=      5-min Rain = 0
KGO1 091703Z 27003KT 21/03 A3022 RMK A01 T02100033  RH  031%=      5-min Rain = 0
KGO1 091704Z 29003KT 21/04 A3022 RMK A01 T02100036  RH  032%=      5-min Rain = 0
KGO1 091705Z 28003KT 21/03 A3022 RMK A01 T02110033  RH  031%=      5-min Rain = 0
KGO1 091706Z 28002KT 21/04 A3022 RMK A01 T02120039  RH  032%=      5-min Rain = 0
KGO1 091707Z 25003KT 21/04 A3022 RMK A01 T02130035  RH  031%=      5-min Rain = 0
KGO1 091708Z 20003KT 21/04 A3022 RMK A01 T02130036  RH  031%=      5-min Rain = 0
KGO1 091709Z 15001KT 21/04 A3022 RMK A01 T02130041  RH  032%=      5-min Rain = 0
KGO1 091710Z 23000KT 21/04 A3022 RMK A01 T02140042  RH  033%=      5-min Rain = 0
KGO1 091711Z 22002KT 22/04 A3022 RMK A01 T02150040  RH  032%=      5-min Rain = 0
KGO1 091712Z 20002KT 22/04 A3022 RMK A01 T02160042  RH  032%=      5-min Rain = 0
KGO1 091713Z 21003KT 22/03 A3022 RMK A01 T02170030  RH  029%=      5-min Rain = 0
KGO1 091714Z 19004KT 22/02 A3022 RMK A01 T02170020  RH  027%=      5-min Rain = 0
KGO1 091715Z 19003KT 22/02 A3022 RMK A01 T02170020  RH  027%=      5-min Rain = 0
KGO1 091716Z 18003KT 22/02 A3022 RMK A01 T02180015  RH  026%=      5-min Rain = 0
KGO1 091717Z 20004KT 22/02 A3022 RMK A01 T02180023  RH  028%=      5-min Rain = 0
KGO1 091718Z 21004KT 22/02 A3022 RMK A01 T02180019  RH  027%=      5-min Rain = 0
KGO1 091719Z 19002KT 22/02 A3022 RMK A01 T02180015  RH  026%=      5-min Rain = 0
KGO1 091720Z 17002KT 22/01 A3022 RMK A01 T02170013  RH  026%=      5-min Rain = 0
KGO1 091721Z 19004KT 22/03 A3022 RMK A01 T02180025  RH  028%=      5-min Rain = 0
KGO1 091722Z 18004KT 22/02 A3022 RMK A01 T02200023  RH  027%=      5-min Rain = 0
KGO1 091723Z 18004KT 22/02 A3022 RMK A01 T02210018  RH  026%=      5-min Rain = 0
KGO1 091724Z 18004KT 22/02 A3022 RMK A01 T02210022  RH  027%=      5-min Rain = 0
KGO1 091725Z 19004KT 22/02 A3022 RMK A01 T02220018  RH  026%=      5-min Rain = 0
KGO1 091726Z 20002KT 22/01 A3022 RMK A01 T02220013  RH  025%=      5-min Rain = 0
KGO1 091727Z 22002KT 22/02 A3022 RMK A01 T02230015  RH  025%=      5-min Rain = 0
KGO1 091728Z 24002KT 22/02 A3022 RMK A01 T02230016  RH  026%=      5-min Rain = 0
KGO1 091729Z 20005KT 22/02 A3021 RMK A01 T02230020  RH  026%=      5-min Rain = 0
KGO1 091730Z 19004KT 22/02 A3021 RMK A01 T02230023  RH  027%=      5-min Rain = 0
KGO1 091731Z 16004KT 22/03 A3021 RMK A01 T02220026  RH  028%=      5-min Rain = 0
KGO1 091732Z 17004KT 22/02 A3021 RMK A01 T02220021  RH  027%=      5-min Rain = 0
KGO1 091733Z 17005KT 22/03 A3021 RMK A01 T02220025  RH  027%=      5-min Rain = 0
KGO1 091734Z 16002KT 22/02 A3021 RMK A01 T02220020  RH  026%=      5-min Rain = 0
KGO1 091735Z 23002KT 22/02 A3021 RMK A01 T02230021  RH  026%=      5-min Rain = 0
KGO1 091736Z 23004KT 22/02 A3021 RMK A01 T02230019  RH  026%=      5-min Rain = 0
KGO1 091737Z 21004KT 22/02 A3021 RMK A01 T02230019  RH  026%=      5-min Rain = 0
KGO1 091738Z 22006KT 22/01 A3021 RMK A01 T02230014  RH  025%=      5-min Rain = 0
KGO1 091739Z 22007KT 22/00 A3021 RMK A01 T02240003  RH  023%=      5-min Rain = 0
KGO1 091740Z 21005KT 22/01 A3021 RMK A01 T02240007  RH  024%=      5-min Rain = 0
KGO1 091741Z 20005KT 22/01 A3021 RMK A01 T02230009  RH  024%=      5-min Rain = 0
KGO1 091742Z 22003KT 22/01 A3021 RMK A01 T02230012  RH  025%=      5-min Rain = 0
KGO1 091743Z 24003KT 22/01 A3021 RMK A01 T02210014  RH  025%=      5-min Rain = 0
KGO1 091744Z 20002KT 22/02 A3021 RMK A01 T02220019  RH  026%=      5-min Rain = 0
KGO1 091745Z 22001KT 22/02 A3021 RMK A01 T02240017  RH  025%=      5-min Rain = 0
KGO1 091746Z 22004KT 23/02 A3021 RMK A01 T02250019  RH  026%=      5-min Rain = 0
KGO1 091747Z 18007KT 23/01 A3021 RMK A01 T02270012  RH  024%=      5-min Rain = 0
KGO1 091748Z 17006KT 23/02 A3021 RMK A01 T02290016  RH  025%=      5-min Rain = 0
KGO1 091749Z 17008KT 23/01 A3021 RMK A01 T02300007  RH  023%=      5-min Rain = 0
KGO1 091750Z 17007KT 23/M00 A3021 RMK A01 T02301004  RH  021%=      5-min Rain = 0
KGO1 091751Z 17006KT 23/M02 A3021 RMK A01 T02301016  RH  019%=      5-min Rain = 0
KGO1 091752Z 17007KT 23/01 A302 RMK A01 T02300009  RH  023%=      5-min Rain = 0
KGO1 091753Z 18007KT 23/01 A302 RMK A01 T02290014  RH  024%=      5-min Rain = 0
KGO1 091754Z 18006KT 23/01 A302 RMK A01 T02290012  RH  024%=      5-min Rain = 0
KGO1 091755Z 20007KT 23/02 A302 RMK A01 T02290016  RH  025%=      5-min Rain = 0
KGO1 091756Z 19006KT 23/01 A302 RMK A01 T02300014  RH  024%=      5-min Rain = 0
KGO1 091757Z 20004KT 23/01 A302 RMK A01 T02290013  RH  024%=      5-min Rain = 0
KGO1 091758Z 18004KT 23/01 A302 RMK A01 T02280014  RH  024%=      5-min Rain = 0
KGO1 091759Z 18006KT 23/01 A302 RMK A01 T02280013  RH  024%=      5-min Rain = 0
KGO1 091800Z 19006KT 23/01 A302 RMK A01 T02290006  RH  023%=      5-min Rain = 0
KGO1 091801Z 18005KT 23/02 A302 RMK A01 T02290015  RH  024%=      5-min Rain = 0
KGO1 091802Z 18007KT 23/02 A302 RMK A01 T02310024  RH  026%=      5-min Rain = 0
KGO1 091803Z 20006KT 23/02 A302 RMK A01 T02320021  RH  025%=      5-min Rain = 0
KGO1 091804Z 20003KT 23/02 A302 RMK A01 T02300017  RH  024%=      5-min Rain = 0
KGO1 091805Z 21004G9KT 23/02 A302 RMK A01 T02290019  RH  025%=      5-min Rain = 0
KGO1 091806Z 16008KT 23/02 A302 RMK A01 T02290020  RH  025%=      5-min Rain = 0
KGO1 091807Z 15006KT 23/02 A302 RMK A01 T02310016  RH  024%=      5-min Rain = 0
KGO1 091808Z 18007KT 23/02 A302 RMK A01 T02320020  RH  025%=      5-min Rain = 0
KGO1 091809Z 19007KT 23/03 A302 RMK A01 T02330025  RH  026%=      5-min Rain = 0
KGO1 091810Z 19007KT 23/03 A302 RMK A01 T02330028  RH  026%=      5-min Rain = 0
KGO1 091811Z 19004KT 23/03 A302 RMK A01 T02320028  RH  026%=      5-min Rain = 0
KGO1 091812Z 18002KT 23/02 A3019 RMK A01 T02320022  RH  025%=      5-min Rain = 0
KGO1 091813Z 17004KT 23/02 A3019 RMK A01 T02320024  RH  026%=      5-min Rain = 0
KGO1 091814Z 17007KT 23/03 A3019 RMK A01 T02320026  RH  026%=      5-min Rain = 0
KGO1 091815Z 18008KT 23/02 A3019 RMK A01 T02340023  RH  025%=      5-min Rain = 0
KGO1 091816Z 18007KT 23/02 A3019 RMK A01 T02340021  RH  025%=      5-min Rain = 0
KGO1 091817Z 18006KT 23/02 A3019 RMK A01 T02330022  RH  025%=      5-min Rain = 0
KGO1 091818Z 18004KT 23/02 A3019 RMK A01 T02330023  RH  025%=      5-min Rain = 0
KGO1 091819Z 16006KT 23/03 A3019 RMK A01 T02330030  RH  026%=      5-min Rain = 0
KGO1 091820Z 16008KT 24/03 A3019 RMK A01 T02350028  RH  026%=      5-min Rain = 0
KGO1 091821Z 18009KT 24/03 A3019 RMK A01 T02360029  RH  026%=      5-min Rain = 0
KGO1 091822Z 19008KT 24/03 A3019 RMK A01 T02370028  RH  026%=      5-min Rain = 0
KGO1 091823Z 18007KT 24/02 A3019 RMK A01 T02370024  RH  025%=      5-min Rain = 0
KGO1 091824Z 19010KT 24/02 A3019 RMK A01 T02380017  RH  024%=      5-min Rain = 0
KGO1 091825Z 19009KT 24/01 A3018 RMK A01 T02380014  RH  023%=      5-min Rain = 0
KGO1 091826Z 20009KT 24/01 A3018 RMK A01 T02370013  RH  023%=      5-min Rain = 0
KGO1 091827Z 21010KT 24/01 A3018 RMK A01 T02360010  RH  023%=      5-min Rain = 0
KGO1 091828Z 22007KT 23/01 A3018 RMK A01 T02340007  RH  022%=      5-min Rain = 0
KGO1 091829Z 20009KT 23/01 A3018 RMK A01 T02340008  RH  022%=      5-min Rain = 0
KGO1 091830Z 19006KT 24/02 A3018 RMK A01 T02350019  RH  024%=      5-min Rain = 0
KGO1 091831Z 22006KT 24/01 A3018 RMK A01 T02350010  RH  023%=      5-min Rain = 0
KGO1 091832Z 22005KT 24/02 A3018 RMK A01 T02360016  RH  023%=      5-min Rain = 0
KGO1 091833Z 21007KT 24/02 A3018 RMK A01 T02390018  RH  023%=      5-min Rain = 0
KGO1 091834Z 21008KT 24/02 A3018 RMK A01 T02410019  RH  023%=      5-min Rain = 0
KGO1 091835Z 20007KT 24/01 A3018 RMK A01 T02410014  RH  023%=      5-min Rain = 0
KGO1 091836Z 21004KT 24/03 A3018 RMK A01 T02390027  RH  025%=      5-min Rain = 0
KGO1 091837Z 19008KT 24/03 A3017 RMK A01 T02410030  RH  025%=      5-min Rain = 0
KGO1 091838Z 18007KT 24/04 A3018 RMK A01 T02420042  RH  027%=      5-min Rain = 0
KGO1 091839Z 17007KT 24/06 A3018 RMK A01 T02410056  RH  030%=      5-min Rain = 0
KGO1 091840Z 17007KT 24/05 A3017 RMK A01 T02420053  RH  029%=      5-min Rain = 0
KGO1 091841Z 17007KT 24/04 A3017 RMK A01 T02400040  RH  027%=      5-min Rain = 0
KGO1 091842Z 18009KT 24/05 A3017 RMK A01 T02370048  RH  029%=      5-min Rain = 0
KGO1 091843Z 19008KT 24/05 A3017 RMK A01 T02360048  RH  030%=      5-min Rain = 0
KGO1 091844Z 18005KT 23/05 A3017 RMK A01 T02340047  RH  030%=      5-min Rain = 0
KGO1 091845Z 15007KT 23/04 A3017 RMK A01 T02340043  RH  029%=      5-min Rain = 0
KGO1 091846Z 16008KT 23/05 A3017 RMK A01 T02330048  RH  030%=      5-min Rain = 0
KGO1 091847Z 16010KT 23/05 A3017 RMK A01 T02340054  RH  031%=      5-min Rain = 0
KGO1 091848Z 17009KT 24/05 A3017 RMK A01 T02350054  RH  031%=      5-min Rain = 0
KGO1 091849Z 17007KT 24/05 A3017 RMK A01 T02350051  RH  030%=      5-min Rain = 0
KGO1 091850Z 17007KT 23/05 A3017 RMK A01 T02330050  RH  030%=      5-min Rain = 0
KGO1 091851Z 15007KT 23/05 A3017 RMK A01 T02320052  RH  031%=      5-min Rain = 0
KGO1 091852Z 16006KT 23/05 A3017 RMK A01 T02320050  RH  031%=      5-min Rain = 0
KGO1 091853Z 17007KT 23/05 A3017 RMK A01 T02330053  RH  031%=      5-min Rain = 0
KGO1 091854Z 19009KT 24/05 A3017 RMK A01 T02370047  RH  029%=      5-min Rain = 0
KGO1 091855Z 18009KT 24/00 A3017 RMK A01 T02390004  RH  021%=      5-min Rain = 0
KGO1 091856Z 20008KT 24/M00 A3017 RMK A01 T02401001  RH  020%=      5-min Rain = 0
KGO1 091857Z 22006KT 24/M01 A3017 RMK A01 T02401009  RH  019%=      5-min Rain = 0
KGO1 091858Z 21004KT 24/M01 A3017 RMK A01 T02381011  RH  019%=      5-min Rain = 0
KGO1 091859Z 21005KT 24/00 A3017 RMK A01 T02370002  RH  021%=      5-min Rain = 0
KGO1 091900Z 19006KT 24/01 A3017 RMK A01 T02380005  RH  021%=      5-min Rain = 0
KGO1 091901Z 20007KT 24/00 A3017 RMK A01 T02390001  RH  021%=      5-min Rain = 0
KGO1 091902Z 21007KT 24/00 A3017 RMK A01 T02390003  RH  021%=      5-min Rain = 0
KGO1 091903Z 21007KT 24/M00 A3016 RMK A01 T02381002  RH  020%=      5-min Rain = 0
KGO1 091904Z 21006KT 24/00 A3016 RMK A01 T02360000  RH  021%=      5-min Rain = 0
KGO1 091905Z 23007KT 24/M00 A3016 RMK A01 T02371002  RH  021%=      5-min Rain = 0
KGO1 091906Z 24010KT 24/M01 A3016 RMK A01 T02391007  RH  020%=      5-min Rain = 0
KGO1 091907Z 23011KT 24/M01 A3016 RMK A01 T02401007  RH  019%=      5-min Rain = 0
KGO1 091908Z 22009KT 24/M01 A3016 RMK A01 T02391009  RH  019%=      5-min Rain = 0
KGO1 091909Z 22007KT 24/M01 A3016 RMK A01 T02371007  RH  020%=      5-min Rain = 0
KGO1 091910Z 23007KT 24/00 A3016 RMK A01 T02380000  RH  021%=      5-min Rain = 0
KGO1 091911Z 25007KT 24/M01 A3016 RMK A01 T02401009  RH  019%=      5-min Rain = 0
KGO1 091912Z 26008KT 24/M01 A3016 RMK A01 T02391012  RH  019%=      5-min Rain = 0
KGO1 091913Z 24008KT 24/M01 A3016 RMK A01 T02381012  RH  019%=      5-min Rain = 0
KGO1 091914Z 21008KT 24/M01 A3016 RMK A01 T02371012  RH  019%=      5-min Rain = 0
KGO1 091915Z 20009KT 24/M01 A3016 RMK A01 T02381013  RH  019%=      5-min Rain = 0
KGO1 091916Z 22008KT 24/M01 A3016 RMK A01 T02391009  RH  019%=      5-min Rain = 0
KGO1 091917Z 22009KT 24/M01 A3016 RMK A01 T02401006  RH  020%=      5-min Rain = 0
KGO1 091918Z 22008KT 24/M01 A3015 RMK A01 T02421007  RH  019%=      5-min Rain = 0
KGO1 091919Z 23008KT 24/M01 A3015 RMK A01 T02391013  RH  019%=      5-min Rain = 0
KGO1 091920Z 22008KT 24/M01 A3015 RMK A01 T02381008  RH  020%=      5-min Rain = 0
KGO1 091921Z 21006KT 24/M01 A3015 RMK A01 T02381009  RH  019%=      5-min Rain = 0
KGO1 091922Z 20005KT 24/M01 A3015 RMK A01 T02381012  RH  019%=      5-min Rain = 0
KGO1 091923Z 21008KT 24/M01 A3015 RMK A01 T02381008  RH  020%=      5-min Rain = 0
KGO1 091924Z 22005KT 24/M02 A3015 RMK A01 T02391019  RH  018%=      5-min Rain = 0
KGO1 091925Z 23006KT 24/M01 A3015 RMK A01 T02381014  RH  019%=      5-min Rain = 0
KGO1 091926Z 24010KT 24/M02 A3015 RMK A01 T02381017  RH  018%=      5-min Rain = 0
KGO1 091927Z 23008KT 24/M02 A3015 RMK A01 T02371018  RH  018%=      5-min Rain = 0
KGO1 091928Z 23009KT 24/M02 A3015 RMK A01 T02371019  RH  018%=      5-min Rain = 0
KGO1 091929Z 24009KT 24/M01 A3015 RMK A01 T02361014  RH  019%=      5-min Rain = 0
KGO1 091930Z 23008KT 24/M02 A3015 RMK A01 T02371015  RH  019%=      5-min Rain = 0
KGO1 091931Z 22007KT 24/M01 A3015 RMK A01 T02371012  RH  019%=      5-min Rain = 0
KGO1 091932Z 20007KT 24/M01 A3015 RMK A01 T02381010  RH  019%=      5-min Rain = 0
KGO1 091933Z 21006KT 24/M01 A3015 RMK A01 T02391014  RH  019%=      5-min Rain = 0
KGO1 091934Z 20009KT 24/M01 A3015 RMK A01 T02421010  RH  019%=      5-min Rain = 0
KGO1 091935Z 20009KT 24/M02 A3015 RMK A01 T02431020  RH  017%=      5-min Rain = 0
KGO1 091936Z 20008KT 24/M02 A3015 RMK A01 T02401022  RH  017%=      5-min Rain = 0
KGO1 091937Z 22008KT 24/M03 A3015 RMK A01 T02391025  RH  017%=      5-min Rain = 0
KGO1 091938Z 23008KT 24/M04 A3014 RMK A01 T02381035  RH  016%=      5-min Rain = 0
KGO1 091939Z 22009KT 24/M03 A3014 RMK A01 T02371032  RH  016%=      5-min Rain = 0
KGO1 091940Z 22009KT 24/M03 A3014 RMK A01 T02371034  RH  016%=      5-min Rain = 0
KGO1 091941Z 22009KT 24/M02 A3014 RMK A01 T02391024  RH  017%=      5-min Rain = 0
KGO1 091942Z 21009KT 24/M02 A3014 RMK A01 T02401016  RH  018%=      5-min Rain = 0
KGO1 091943Z 21009KT 24/M01 A3014 RMK A01 T02391012  RH  019%=      5-min Rain = 0
KGO1 091944Z 22008KT 24/M01 A3014 RMK A01 T02391012  RH  019%=      5-min Rain = 0
KGO1 091945Z 21006KT 24/M01 A3014 RMK A01 T02401009  RH  019%=      5-min Rain = 0
KGO1 091946Z 21006KT 24/M01 A3014 RMK A01 T02421011  RH  019%=      5-min Rain = 0
KGO1 091947Z 22007KT 24/M01 A3014 RMK A01 T02421013  RH  018%=      5-min Rain = 0
KGO1 091948Z 23006KT 24/M02 A3014 RMK A01 T02421020  RH  017%=      5-min Rain = 0
KGO1 091949Z 21010KT 24/M02 A3014 RMK A01 T02411015  RH  018%=      5-min Rain = 0
KGO1 091950Z 21011KT 24/M02 A3014 RMK A01 T02411016  RH  018%=      5-min Rain = 0
KGO1 091951Z 20010KT 24/M01 A3014 RMK A01 T02391014  RH  019%=      5-min Rain = 0
KGO1 091952Z 21009KT 24/M02 A3014 RMK A01 T02391016  RH  018%=      5-min Rain = 0
KGO1 091953Z 21007KT 24/M02 A3014 RMK A01 T02401018  RH  018%=      5-min Rain = 0
KGO1 091954Z 22005KT 24/M02 A3014 RMK A01 T02401019  RH  018%=      5-min Rain = 0
KGO1 091955Z 20009KT 24/M02 A3014 RMK A01 T02411019  RH  018%=      5-min Rain = 0
KGO1 091956Z 20011KT 24/M02 A3014 RMK A01 T02411016  RH  018%=      5-min Rain = 0
KGO1 091957Z 21010KT 24/M01 A3014 RMK A01 T02411013  RH  019%=      5-min Rain = 0
KGO1 091958Z 21011KT 24/M02 A3014 RMK A01 T02411015  RH  018%=      5-min Rain = 0
KGO1 091959Z 21008KT 24/M01 A3014 RMK A01 T02411014  RH  018%=      5-min Rain = 0
KGO1 092000Z 21006KT 24/M01 A3014 RMK A01 T02401012  RH  019%=      5-min Rain = 0
KGO1 092001Z 21005KT 24/M02 A3014 RMK A01 T02401017  RH  018%=      5-min Rain = 0
KGO1 092002Z 20006KT 24/M02 A3014 RMK A01 T02391015  RH  018%=      5-min Rain = 0
KGO1 092003Z 20007KT 24/M02 A3013 RMK A01 T02391018  RH  018%=      5-min Rain = 0
KGO1 092004Z 18011KT 24/M02 A3013 RMK A01 T02391024  RH  017%=      5-min Rain = 0
KGO1 092005Z 20010KT 24/M02 A3013 RMK A01 T02401019  RH  018%=      5-min Rain = 0
KGO1 092006Z 21010KT 24/M02 A3013 RMK A01 T02421017  RH  018%=      5-min Rain = 0
KGO1 092007Z 22010KT 24/M01 A3013 RMK A01 T02431010  RH  019%=      5-min Rain = 0
KGO1 092008Z 22008KT 24/M01 A3013 RMK A01 T02421013  RH  018%=      5-min Rain = 0
KGO1 092009Z 20007KT 24/M01 A3013 RMK A01 T02411014  RH  018%=      5-min Rain = 0
KGO1 092010Z 19009KT 24/M02 A3013 RMK A01 T02401016  RH  018%=      5-min Rain = 0
KGO1 092011Z 20008KT 24/M02 A3013 RMK A01 T02401022  RH  017%=      5-min Rain = 0
KGO1 092012Z 22011KT 24/M02 A3013 RMK A01 T02401018  RH  018%=      5-min Rain = 0
KGO1 092013Z 21010KT 24/M02 A3013 RMK A01 T02411018  RH  018%=      5-min Rain = 0
KGO1 092014Z 22009KT 24/M02 A3013 RMK A01 T02391017  RH  018%=      5-min Rain = 0
KGO1 092015Z 21008KT 24/M02 A3013 RMK A01 T02391016  RH  018%=      5-min Rain = 0
KGO1 092016Z 20006KT 24/M01 A3013 RMK A01 T02391013  RH  019%=      5-min Rain = 0
KGO1 092017Z 20005KT 24/M01 A3013 RMK A01 T02381008  RH  020%=      5-min Rain = 0
KGO1 092018Z 20008KT 24/M01 A3013 RMK A01 T02381006  RH  020%=      5-min Rain = 0
KGO1 092019Z 21010KT 24/M01 A3013 RMK A01 T02401005  RH  020%=      5-min Rain = 0
KGO1 092020Z 20008KT 24/M01 A3013 RMK A01 T02401007  RH  020%=      5-min Rain = 0
KGO1 092021Z 22011KT 24/M01 A3013 RMK A01 T02401005  RH  020%=      5-min Rain = 0
KGO1 092022Z 22009KT 24/00 A3013 RMK A01 T02410001  RH  020%=      5-min Rain = 0
KGO1 092023Z 21008KT 24/00 A3013 RMK A01 T02400004  RH  021%=      5-min Rain = 0
KGO1 092024Z 22008KT 24/01 A3013 RMK A01 T02400006  RH  021%=      5-min Rain = 0
KGO1 092025Z 23008KT 24/00 A3013 RMK A01 T02400001  RH  021%=      5-min Rain = 0
KGO1 092026Z 23009KT 24/00 A3013 RMK A01 T02390004  RH  021%=      5-min Rain = 0
KGO1 092027Z 22009KT 24/01 A3013 RMK A01 T02390008  RH  022%=      5-min Rain = 0
KGO1 092028Z 22007KT 24/01 A3013 RMK A01 T02390009  RH  022%=      5-min Rain = 0
KGO1 092029Z 21007KT 24/00 A3012 RMK A01 T02390004  RH  021%=      5-min Rain = 0
KGO1 092030Z 23008KT 24/01 A3013 RMK A01 T02390007  RH  022%=      5-min Rain = 0
KGO1 092031Z 21009G14KT 24/01 A3013 RMK A01 T02400007  RH  022%=      5-min Rain = 0
KGO1 092032Z 21011KT 24/01 A3012 RMK A01 T02400010  RH  022%=      5-min Rain = 0
KGO1 092033Z 20012KT 24/01 A3012 RMK A01 T02410008  RH  022%=      5-min Rain = 0
KGO1 092034Z 21010KT 24/01 A3012 RMK A01 T02390006  RH  022%=      5-min Rain = 0
KGO1 092035Z 20009KT 24/00 A3012 RMK A01 T02390000  RH  021%=      5-min Rain = 0
KGO1 092036Z 20011KT 24/00 A3012 RMK A01 T02380004  RH  021%=      5-min Rain = 0
KGO1 092037Z 20006KT 24/00 A3012 RMK A01 T02390004  RH  021%=      5-min Rain = 0
KGO1 092038Z 20008KT 24/01 A3012 RMK A01 T02390006  RH  021%=      5-min Rain = 0
KGO1 092039Z 21012KT 24/01 A3012 RMK A01 T02400007  RH  022%=      5-min Rain = 0
KGO1 092040Z 21009KT 24/01 A3012 RMK A01 T02390009  RH  022%=      5-min Rain = 0
KGO1 092041Z 20011KT 24/01 A3012 RMK A01 T02370011  RH  023%=      5-min Rain = 0
KGO1 092042Z 19009KT 24/01 A3012 RMK A01 T02380010  RH  022%=      5-min Rain = 0
KGO1 092043Z 20009KT 24/00 A3012 RMK A01 T02390002  RH  021%=      5-min Rain = 0
KGO1 092044Z 22007KT 24/01 A3012 RMK A01 T02390008  RH  022%=      5-min Rain = 0
KGO1 092045Z 21005KT 24/01 A3012 RMK A01 T02380007  RH  022%=      5-min Rain = 0
KGO1 092046Z 19007G12KT 24/01 A3012 RMK A01 T02370011  RH  023%=      5-min Rain = 0
KGO1 092047Z 20012KT 24/01 A3012 RMK A01 T02390009  RH  022%=      5-min Rain = 0
KGO1 092048Z 21008KT 24/00 A3012 RMK A01 T02390004  RH  021%=      5-min Rain = 0
KGO1 092049Z 18009KT 24/01 A3012 RMK A01 T02390011  RH  022%=      5-min Rain = 0
KGO1 092050Z 18009KT 24/01 A3012 RMK A01 T02390006  RH  022%=      5-min Rain = 0
KGO1 092051Z 19010KT 24/01 A3012 RMK A01 T02390012  RH  022%=      5-min Rain = 0
KGO1 092052Z 18008KT 24/01 A3012 RMK A01 T02410009  RH  022%=      5-min Rain = 0
KGO1 092053Z 17009KT 24/01 A3012 RMK A01 T02420007  RH  021%=      5-min Rain = 0
KGO1 092054Z 19008KT 24/01 A3012 RMK A01 T02420009  RH  022%=      5-min Rain = 0
KGO1 092055Z 18008KT 24/01 A3012 RMK A01 T02420010  RH  022%=      5-min Rain = 0
KGO1 092056Z 20007KT 24/01 A3012 RMK A01 T02430005  RH  021%=      5-min Rain = 0
KGO1 092057Z 20007KT 24/01 A3012 RMK A01 T02430009  RH  021%=      5-min Rain = 0
KGO1 092058Z 19010KT 25/01 A3012 RMK A01 T02450005  RH  021%=      5-min Rain = 0
KGO1 092059Z 20009KT 25/M00 A3012 RMK A01 T02451004  RH  019%=      5-min Rain = 0
KGO1 092100Z 20009KT 24/M01 A3011 RMK A01 T02431010  RH  019%=      5-min Rain = 0
KGO1 092101Z 21007KT 24/M01 A3011 RMK A01 T02411010  RH  019%=      5-min Rain = 0
KGO1 092102Z 21007KT 24/M01 A3011 RMK A01 T02411007  RH  019%=      5-min Rain = 0
KGO1 092103Z 21010KT 24/M01 A3011 RMK A01 T02411006  RH  020%=      5-min Rain = 0
KGO1 092104Z 22009KT 24/M01 A3011 RMK A01 T02411008  RH  019%=      5-min Rain = 0
KGO1 092105Z 21007KT 24/M01 A3011 RMK A01 T02401008  RH  019%=      5-min Rain = 0
KGO1 092106Z 20008KT 24/M01 A3011 RMK A01 T02401010  RH  019%=      5-min Rain = 0
KGO1 092107Z 19009KT 24/M01 A3011 RMK A01 T02411012  RH  019%=      5-min Rain = 0
KGO1 092108Z 18010KT 24/M01 A3011 RMK A01 T02421011  RH  019%=      5-min Rain = 0
KGO1 092109Z 17009KT 24/M02 A3011 RMK A01 T02431018  RH  018%=      5-min Rain = 0
KGO1 092110Z 18008KT 24/M02 A3011 RMK A01 T02421020  RH  017%=      5-min Rain = 0
KGO1 092111Z 19008KT 24/M01 A3011 RMK A01 T02421013  RH  018%=      5-min Rain = 0
KGO1 092112Z 19008KT 24/M02 A3011 RMK A01 T02441020  RH  017%=      5-min Rain = 0
KGO1 092113Z 20009KT 24/M02 A3011 RMK A01 T02441017  RH  018%=      5-min Rain = 0
KGO1 092114Z 20010KT 24/M02 A3011 RMK A01 T02441022  RH  017%=      5-min Rain = 0
KGO1 092115Z 17012KT 24/M02 A3011 RMK A01 T02441021  RH  017%=      5-min Rain = 0
KGO1 092116Z 18014KT 24/M02 A3011 RMK A01 T02431023  RH  017%=      5-min Rain = 0
KGO1 092117Z 18012KT 24/M03 A3011 RMK A01 T02421025  RH  017%=      5-min Rain = 0
KGO1 092118Z 17011KT 24/M02 A3011 RMK A01 T02411023  RH  017%=      5-min Rain = 0
KGO1 092119Z 17013KT 24/M02 A3011 RMK A01 T02421021  RH  017%=      5-min Rain = 0
KGO1 092120Z 18012KT 24/M02 A3011 RMK A01 T02421021  RH  017%=      5-min Rain = 0
KGO1 092121Z 17013KT 24/M02 A3011 RMK A01 T02411018  RH  018%=      5-min Rain = 0
KGO1 092122Z 18012KT 24/M02 A3011 RMK A01 T02411020  RH  018%=      5-min Rain = 0
KGO1 092123Z 18012KT 24/M02 A3011 RMK A01 T02401022  RH  017%=      5-min Rain = 0
KGO1 092124Z 17013KT 24/M02 A3011 RMK A01 T02401019  RH  018%=      5-min Rain = 0
KGO1 092125Z 18010KT 24/M02 A3011 RMK A01 T02401018  RH  018%=      5-min Rain = 0
KGO1 092126Z 19009KT 24/M02 A3011 RMK A01 T02411017  RH  018%=      5-min Rain = 0
KGO1 092127Z 20010KT 24/M02 A3011 RMK A01 T02421018  RH  018%=      5-min Rain = 0
KGO1 092128Z 20008KT 24/M02 A3011 RMK A01 T02431022  RH  017%=      5-min Rain = 0
KGO1 092129Z 18008KT 24/M02 A3011 RMK A01 T02431018  RH  018%=      5-min Rain = 0
KGO1 092130Z 19010KT 24/M02 A3011 RMK A01 T02441018  RH  018%=      5-min Rain = 0
KGO1 092131Z 20009KT 25/M02 A3011 RMK A01 T02451018  RH  017%=      5-min Rain = 0
KGO1 092132Z 21007KT 25/M02 A3011 RMK A01 T02451021  RH  017%=      5-min Rain = 0
KGO1 092133Z 20008KT 25/M02 A3011 RMK A01 T02451020  RH  017%=      5-min Rain = 0
KGO1 092134Z 19011KT 25/M02 A301 RMK A01 T02451019  RH  017%=      5-min Rain = 0
KGO1 092135Z 18011KT 24/M02 A301 RMK A01 T02441018  RH  017%=      5-min Rain = 0
KGO1 092136Z 18014KT 24/M02 A301 RMK A01 T02431021  RH  017%=      5-min Rain = 0
KGO1 092137Z 17013KT 24/M02 A301 RMK A01 T02421021  RH  017%=      5-min Rain = 0
KGO1 092138Z 17011KT 24/M02 A301 RMK A01 T02411020  RH  018%=      5-min Rain = 0
KGO1 092139Z 17009KT 24/M02 A301 RMK A01 T02411017  RH  018%=      5-min Rain = 0
KGO1 092140Z 17010KT 24/M02 A301 RMK A01 T02411017  RH  018%=      5-min Rain = 0
KGO1 092141Z 17013KT 24/M02 A301 RMK A01 T02411020  RH  018%=      5-min Rain = 0
KGO1 092142Z 17012KT 24/M02 A301 RMK A01 T02411018  RH  018%=      5-min Rain = 0
KGO1 092143Z 17011KT 24/M02 A301 RMK A01 T02411020  RH  018%=      5-min Rain = 0
KGO1 092144Z 19011KT 24/M02 A301 RMK A01 T02411016  RH  018%=      5-min Rain = 0
KGO1 092145Z 18014KT 24/M02 A301 RMK A01 T02411019  RH  018%=      5-min Rain = 0
KGO1 092146Z 18012KT 24/M02 A301 RMK A01 T02411018  RH  018%=      5-min Rain = 0
KGO1 092147Z 18012KT 24/M02 A301 RMK A01 T02401018  RH  018%=      5-min Rain = 0
KGO1 092148Z 18012KT 24/M02 A301 RMK A01 T02401019  RH  018%=      5-min Rain = 0
KGO1 092149Z 19010KT 24/M02 A301 RMK A01 T02391021  RH  018%=      5-min Rain = 0
KGO1 092150Z 18011KT 24/M02 A301 RMK A01 T02391020  RH  018%=      5-min Rain = 0
KGO1 092151Z 17011KT 24/M02 A301 RMK A01 T02391018  RH  018%=      5-min Rain = 0
KGO1 092152Z 17011KT 24/M02 A301 RMK A01 T02391020  RH  018%=      5-min Rain = 0
KGO1 092153Z 17010KT 24/M02 A301 RMK A01 T02391017  RH  018%=      5-min Rain = 0
KGO1 092154Z 18010KT 24/M02 A301 RMK A01 T02391016  RH  018%=      5-min Rain = 0
KGO1 092155Z 18009KT 24/M02 A301 RMK A01 T02391017  RH  018%=      5-min Rain = 0
KGO1 092156Z 17009KT 24/M02 A301 RMK A01 T02391017  RH  018%=      5-min Rain = 0
KGO1 092157Z 17009KT 24/M02 A301 RMK A01 T02401017  RH  018%=      5-min Rain = 0
KGO1 092158Z 17007KT 24/M02 A301 RMK A01 T02401017  RH  018%=      5-min Rain = 0
KGO1 092159Z 19007KT 24/M02 A301 RMK A01 T02411016  RH  018%=      5-min Rain = 0
KGO1 092200Z 19010KT 24/M02 A301 RMK A01 T02411020  RH  018%=      5-min Rain = 0
KGO1 092201Z 21008KT 24/M03 A301 RMK A01 T02411026  RH  017%=      5-min Rain = 0
KGO1 092202Z 21007KT 24/M02 A301 RMK A01 T02401023  RH  017%=      5-min Rain = 0
KGO1 092203Z 20011KT 24/M02 A301 RMK A01 T02411023  RH  017%=      5-min Rain = 0
KGO1 092204Z 20010KT 24/M03 A301 RMK A01 T02421028  RH  017%=      5-min Rain = 0
KGO1 092205Z 19008KT 24/M03 A3009 RMK A01 T02411029  RH  016%=      5-min Rain = 0
KGO1 092206Z 19009KT 24/M03 A3009 RMK A01 T02411026  RH  017%=      5-min Rain = 0
KGO1 092207Z 18009KT 24/M03 A3009 RMK A01 T02411025  RH  017%=      5-min Rain = 0
KGO1 092208Z 18012KT 24/M03 A3009 RMK A01 T02411028  RH  017%=      5-min Rain = 0
KGO1 092209Z 18011KT 24/M03 A3009 RMK A01 T02391032  RH  016%=      5-min Rain = 0
KGO1 092210Z 18012KT 24/M03 A3009 RMK A01 T02381032  RH  016%=      5-min Rain = 0
KGO1 092211Z 18012KT 24/M04 A3009 RMK A01 T02371036  RH  016%=      5-min Rain = 0
KGO1 092212Z 19011KT 24/M04 A3009 RMK A01 T02371040  RH  016%=      5-min Rain = 0
KGO1 092213Z 18010KT 24/M04 A3009 RMK A01 T02361039  RH  016%=      5-min Rain = 0
KGO1 092214Z 18007KT 24/M04 A3009 RMK A01 T02351040  RH  016%=      5-min Rain = 0
KGO1 092215Z 17008KT 24/M04 A3009 RMK A01 T02351038  RH  016%=      5-min Rain = 0
KGO1 092216Z 18009KT 24/M04 A3009 RMK A01 T02361037  RH  016%=      5-min Rain = 0
KGO1 092217Z 18009KT 24/M04 A3009 RMK A01 T02371038  RH  016%=      5-min Rain = 0
KGO1 092218Z 19009KT 24/M04 A3009 RMK A01 T02371038  RH  016%=      5-min Rain = 0
KGO1 092219Z 19009KT 24/M04 A3009 RMK A01 T02371041  RH  015%=      5-min Rain = 0
KGO1 092220Z 19010KT 24/M04 A3009 RMK A01 T02371041  RH  015%=      5-min Rain = 0
KGO1 092221Z 18010KT 24/M04 A3009 RMK A01 T02361042  RH  015%=      5-min Rain = 0
KGO1 092222Z 18011KT 24/M04 A3009 RMK A01 T02361040  RH  016%=      5-min Rain = 0
KGO1 092223Z 18011KT 24/M04 A3009 RMK A01 T02361039  RH  016%=      5-min Rain = 0
KGO1 092224Z 18011KT 24/M04 A3009 RMK A01 T02351035  RH  016%=      5-min Rain = 0
KGO1 092225Z 19011KT 24/M04 A3009 RMK A01 T02351035  RH  016%=      5-min Rain = 0
KGO1 092226Z 19009KT 24/M04 A3009 RMK A01 T02351035  RH  016%=      5-min Rain = 0
KGO1 092227Z 20008KT 24/M03 A3009 RMK A01 T02351034  RH  016%=      5-min Rain = 0
KGO1 092228Z 21010KT 24/M03 A3009 RMK A01 T02351034  RH  016%=      5-min Rain = 0
KGO1 092229Z 19008KT 24/M04 A3009 RMK A01 T02351039  RH  016%=      5-min Rain = 0
KGO1 092230Z 19009KT 24/M04 A3009 RMK A01 T02351039  RH  016%=      5-min Rain = 0
KGO1 092231Z 21009KT 24/M04 A3009 RMK A01 T02351039  RH  016%=      5-min Rain = 0
KGO1 092232Z 21008KT 23/M04 A3009 RMK A01 T02341036  RH  016%=      5-min Rain = 0
KGO1 092233Z 19007KT 23/M03 A3009 RMK A01 T02341034  RH  017%=      5-min Rain = 0
KGO1 092234Z 19007KT 23/M03 A3009 RMK A01 T02341026  RH  018%=      5-min Rain = 0
KGO1 092235Z 19007KT 23/M02 A3009 RMK A01 T02341023  RH  018%=      5-min Rain = 0
KGO1 092236Z 19007KT 23/M03 A3009 RMK A01 T02341025  RH  018%=      5-min Rain = 0
KGO1 092237Z 19009KT 23/M03 A3009 RMK A01 T02341027  RH  017%=      5-min Rain = 0
KGO1 092238Z 19009KT 23/M03 A3009 RMK A01 T02331031  RH  017%=      5-min Rain = 0
KGO1 092239Z 20008KT 23/M03 A3009 RMK A01 T02331030  RH  017%=      5-min Rain = 0
KGO1 092240Z 19007KT 23/M03 A3009 RMK A01 T02321028  RH  018%=      5-min Rain = 0
KGO1 092241Z 18008KT 23/M02 A3009 RMK A01 T02321024  RH  018%=      5-min Rain = 0
KGO1 092242Z 19007KT 23/M02 A3009 RMK A01 T02321022  RH  018%=      5-min Rain = 0
KGO1 092243Z 18008KT 23/M02 A3009 RMK A01 T02311020  RH  019%=      5-min Rain = 0
KGO1 092244Z 18008KT 23/M02 A3009 RMK A01 T02311022  RH  019%=      5-min Rain = 0
KGO1 092245Z 18008KT 23/M02 A3009 RMK A01 T02301021  RH  019%=      5-min Rain = 0
KGO1 092246Z 19007KT 23/M02 A3009 RMK A01 T02301021  RH  019%=      5-min Rain = 0
KGO1 092247Z 19007KT 23/M02 A3009 RMK A01 T02301019  RH  019%=      5-min Rain = 0
KGO1 092248Z 20007KT 23/M02 A3009 RMK A01 T02291018  RH  019%=      5-min Rain = 0
KGO1 092249Z 21008KT 23/M02 A3009 RMK A01 T02291017  RH  019%=      5-min Rain = 0
KGO1 092250Z 20008KT 23/M02 A3009 RMK A01 T02281015  RH  020%=      5-min Rain = 0
KGO1 092251Z 20008KT 23/M01 A3009 RMK A01 T02271011  RH  020%=      5-min Rain = 0
KGO1 092252Z 19007KT 23/M01 A3009 RMK A01 T02261009  RH  021%=      5-min Rain = 0
KGO1 092253Z 19006KT 23/M01 A3009 RMK A01 T02251008  RH  021%=      5-min Rain = 0
KGO1 092254Z 19007KT 23/M01 A3009 RMK A01 T02251006  RH  021%=      5-min Rain = 0
KGO1 092255Z 18007KT 23/M01 A3009 RMK A01 T02251006  RH  021%=      5-min Rain = 0
KGO1 092256Z 19008KT 22/M01 A3009 RMK A01 T02241005  RH  022%=      5-min Rain = 0
KGO1 092257Z 19008KT 22/M01 A3009 RMK A01 T02241007  RH  022%=      5-min Rain = 0
KGO1 092258Z 18007KT 22/M01 A3009 RMK A01 T02231006  RH  022%=      5-min Rain = 0
KGO1 092259Z 18007KT 22/M00 A3009 RMK A01 T02231004  RH  022%=      5-min Rain = 0
KGO1 092300Z 18008KT 22/M00 A3009 RMK A01 T02221004  RH  022%=      5-min Rain = 0
KGO1 092301Z 19007KT 22/M00 A3009 RMK A01 T02211004  RH  022%=      5-min Rain = 0
KGO1 092302Z 19007KT 22/M00 A3009 RMK A01 T02201002  RH  023%=      5-min Rain = 0
KGO1 092303Z 18006KT 22/00 A3009 RMK A01 T022000-0  RH  023%=      5-min Rain = 0
KGO1 092304Z 18008KT 22/00 A3009 RMK A01 T021800-0  RH  023%=      5-min Rain = 0
KGO1 092305Z 18008KT 22/00 A3009 RMK A01 T02180000  RH  024%=      5-min Rain = 0
KGO1 092306Z 18008KT 22/00 A3009 RMK A01 T02170002  RH  024%=      5-min Rain = 0
KGO1 092307Z 18008KT 22/00 A3009 RMK A01 T02160003  RH  024%=      5-min Rain = 0
KGO1 092308Z 18008KT 22/00 A3009 RMK A01 T02150003  RH  024%=      5-min Rain = 0
KGO1 092309Z 19008KT 21/00 A3009 RMK A01 T02140003  RH  025%=      5-min Rain = 0
KGO1 092310Z 19008KT 21/00 A3009 RMK A01 T02140004  RH  025%=      5-min Rain = 0
KGO1 092311Z 19008KT 21/00 A3009 RMK A01 T02130004  RH  025%=      5-min Rain = 0
KGO1 092312Z 19007KT 21/00 A3009 RMK A01 T02120004  RH  025%=      5-min Rain = 0
KGO1 092313Z 19007KT 21/01 A3009 RMK A01 T02110005  RH  025%=      5-min Rain = 0
KGO1 092314Z 19007KT 21/01 A3009 RMK A01 T02100006  RH  026%=      5-min Rain = 0
KGO1 092315Z 19007KT 21/01 A3009 RMK A01 T02090005  RH  026%=      5-min Rain = 0
KGO1 092316Z 19007KT 21/01 A3009 RMK A01 T02080006  RH  026%=      5-min Rain = 0
KGO1 092317Z 19007KT 21/01 A3009 RMK A01 T02070007  RH  026%=      5-min Rain = 0
KGO1 092318Z 19006KT 21/01 A3009 RMK A01 T02050007  RH  027%=      5-min Rain = 0
KGO1 092319Z 19006KT 20/01 A3009 RMK A01 T02040007  RH  027%=      5-min Rain = 0
KGO1 092320Z 19006KT 20/01 A3009 RMK A01 T02030007  RH  027%=      5-min Rain = 0
KGO1 092321Z 19006KT 20/01 A3009 RMK A01 T02020008  RH  027%=      5-min Rain = 0
KGO1 092322Z 19006KT 20/01 A3009 RMK A01 T02000008  RH  028%=      5-min Rain = 0
KGO1 092323Z 19006KT 20/01 A3009 RMK A01 T01990009  RH  028%=      5-min Rain = 0
KGO1 092324Z 19006KT 20/01 A3009 RMK A01 T01970009  RH  028%=      5-min Rain = 0
KGO1 092325Z 19006KT 20/01 A3009 RMK A01 T01960009  RH  029%=      5-min Rain = 0
KGO1 092326Z 19006KT 20/01 A3009 RMK A01 T01950009  RH  029%=      5-min Rain = 0
KGO1 092327Z 19006KT 19/01 A3009 RMK A01 T01930010  RH  029%=      5-min Rain = 0
KGO1 092328Z 19006KT 19/01 A3009 RMK A01 T01910010  RH  030%=      5-min Rain = 0
KGO1 092329Z 19007KT 19/01 A3009 RMK A01 T01890010  RH  030%=      5-min Rain = 0
KGO1 092330Z 19006KT 19/01 A3009 RMK A01 T01880010  RH  030%=      5-min Rain = 0
KGO1 092331Z 19006KT 19/01 A3009 RMK A01 T01860010  RH  031%=      5-min Rain = 0
KGO1 092332Z 19006KT 18/01 A3009 RMK A01 T01840010  RH  031%=      5-min Rain = 0
KGO1 092333Z 19006KT 18/01 A3009 RMK A01 T01830010  RH  031%=      5-min Rain = 0
KGO1 092334Z 19006KT 18/01 A3009 RMK A01 T01810010  RH  032%=      5-min Rain = 0
KGO1 092335Z 19007KT 18/01 A3009 RMK A01 T01790009  RH  032%=      5-min Rain = 0
KGO1 092336Z 19006KT 18/01 A3009 RMK A01 T01780010  RH  032%=      5-min Rain = 0
KGO1 092337Z 19007KT 18/01 A3009 RMK A01 T01770010  RH  032%=      5-min Rain = 0
KGO1 092338Z 19006KT 18/01 A3009 RMK A01 T01760010  RH  033%=      5-min Rain = 0
KGO1 092339Z 19007KT 17/01 A3009 RMK A01 T01740010  RH  033%=      5-min Rain = 0
KGO1 092340Z 19007KT 17/01 A3009 RMK A01 T01730010  RH  033%=      5-min Rain = 0
KGO1 092341Z 19006KT 17/01 A3009 RMK A01 T01720011  RH  034%=      5-min Rain = 0
KGO1 092342Z 19007KT 17/01 A3009 RMK A01 T01710012  RH  034%=      5-min Rain = 0
KGO1 092343Z 19006KT 17/01 A3009 RMK A01 T01690012  RH  035%=      5-min Rain = 0
KGO1 092344Z 19006KT 17/01 A3009 RMK A01 T01670012  RH  035%=      5-min Rain = 0
KGO1 092345Z 19006KT 17/01 A3009 RMK A01 T01660012  RH  036%=      5-min Rain = 0
KGO1 092346Z 19006KT 17/01 A3009 RMK A01 T01650013  RH  036%=      5-min Rain = 0
KGO1 092347Z 19006KT 17/01 A3009 RMK A01 T01650013  RH  036%=      5-min Rain = 0
KGO1 092348Z 19007KT 16/01 A3009 RMK A01 T01640014  RH  036%=      5-min Rain = 0
KGO1 092349Z 20006KT 16/01 A3009 RMK A01 T01630014  RH  037%=      5-min Rain = 0
KGO1 092350Z 20006KT 16/01 A3009 RMK A01 T01620014  RH  037%=      5-min Rain = 0
KGO1 092351Z 20006KT 16/01 A3009 RMK A01 T01620014  RH  037%=      5-min Rain = 0
KGO1 092352Z 20006KT 16/01 A3009 RMK A01 T01610012  RH  037%=      5-min Rain = 0
KGO1 092353Z 20006KT 16/01 A3009 RMK A01 T01590013  RH  037%=      5-min Rain = 0
KGO1 092354Z 20006KT 16/01 A3009 RMK A01 T01580014  RH  038%=      5-min Rain = 0
KGO1 092355Z 20006KT 16/01 A3009 RMK A01 T01570014  RH  038%=      5-min Rain = 0
KGO1 092356Z 20006KT 16/01 A3009 RMK A01 T01560014  RH  038%=      5-min Rain = 0
KGO1 092357Z 20006KT 16/01 A3009 RMK A01 T01550014  RH  038%=      5-min Rain = 0
KGO1 092358Z 20006KT 16/01 A3009 RMK A01 T01550014  RH  038%=      5-min Rain = 0
KGO1 092359Z 20006KT 15/01 A3009 RMK A01 T01540014  RH  039%=      5-min Rain = 0
KGO1 100000Z 20006KT 15/01 A3009 RMK A01 T01530014  RH  039%=      5-min Rain = 0
KGO1 100001Z 20006KT 15/01 A3009 RMK A01 T01520014  RH  039%=      5-min Rain = 0
KGO1 100002Z 20006KT 15/01 A3009 RMK A01 T01510014  RH  039%=      5-min Rain = 0
KGO1 100003Z 20006KT 15/01 A3009 RMK A01 T01510014  RH  039%=      5-min Rain = 0
KGO1 100004Z 20006KT 15/01 A3009 RMK A01 T01510014  RH  040%=      5-min Rain = 0
KGO1 100005Z 20006KT 15/01 A3009 RMK A01 T01510014  RH  039%=      5-min Rain = 0
KGO1 100006Z 20006KT 15/01 A3009 RMK A01 T01510014  RH  039%=      5-min Rain = 0
KGO1 100007Z 19006KT 15/01 A3009 RMK A01 T01510014  RH  039%=      5-min Rain = 0
KGO1 100008Z 19006KT 15/01 A3009 RMK A01 T01500014  RH  040%=      5-min Rain = 0
KGO1 100009Z 19006KT 15/01 A3009 RMK A01 T01500014  RH  040%=      5-min Rain = 0
KGO1 100010Z 19006KT 15/01 A3009 RMK A01 T01500014  RH  040%=      5-min Rain = 0
KGO1 100011Z 19005KT 15/02 A3009 RMK A01 T01500016  RH  040%=      5-min Rain = 0
KGO1 100012Z 19005KT 15/02 A3009 RMK A01 T01490016  RH  040%=      5-min Rain = 0
KGO1 100013Z 20005KT 15/02 A3009 RMK A01 T01510016  RH  040%=      5-min Rain = 0
KGO1 100014Z 20005KT 15/02 A3009 RMK A01 T01530017  RH  040%=      5-min Rain = 0
KGO1 100015Z 20005KT 15/02 A3009 RMK A01 T01540017  RH  039%=      5-min Rain = 0
KGO1 100016Z 20005KT 16/02 A3009 RMK A01 T01560017  RH  039%=      5-min Rain = 0
KGO1 100017Z 20005KT 16/02 A3009 RMK A01 T01560017  RH  039%=      5-min Rain = 0
KGO1 100018Z 20005KT 16/02 A3009 RMK A01 T01560017  RH  039%=      5-min Rain = 0
KGO1 100019Z 20005KT 16/02 A3009 RMK A01 T01570017  RH  039%=      5-min Rain = 0
KGO1 100020Z 20005KT 16/02 A3009 RMK A01 T01590017  RH  038%=      5-min Rain = 0
KGO1 100021Z 19005KT 16/02 A3009 RMK A01 T01610017  RH  038%=      5-min Rain = 0
KGO1 100022Z 19005KT 16/02 A3009 RMK A01 T01610016  RH  037%=      5-min Rain = 0
KGO1 100023Z 19005KT 16/02 A3009 RMK A01 T01620016  RH  037%=      5-min Rain = 0
KGO1 100024Z 19005KT 16/02 A3009 RMK A01 T01620016  RH  037%=      5-min Rain = 0
KGO1 100025Z 19005KT 16/02 A3009 RMK A01 T01620016  RH  037%=      5-min Rain = 0
KGO1 100026Z 19005KT 16/02 A3009 RMK A01 T01600016  RH  038%=      5-min Rain = 0
KGO1 100027Z 19005KT 16/02 A3009 RMK A01 T01570016  RH  038%=      5-min Rain = 0
KGO1 100028Z 19005KT 15/02 A3009 RMK A01 T01540016  RH  039%=      5-min Rain = 0
KGO1 100029Z 19005KT 15/02 A3009 RMK A01 T01510016  RH  040%=      5-min Rain = 0
KGO1 100030Z 19005KT 15/02 A3009 RMK A01 T01510016  RH  040%=      5-min Rain = 0
KGO1 100031Z 19005KT 15/02 A3009 RMK A01 T01520017  RH  040%=      5-min Rain = 0
KGO1 100032Z 19005KT 15/02 A3009 RMK A01 T01530016  RH  040%=      5-min Rain = 0
KGO1 100033Z 19005KT 15/02 A3009 RMK A01 T01540017  RH  039%=      5-min Rain = 0
KGO1 100034Z 19005KT 15/02 A3009 RMK A01 T01540017  RH  039%=      5-min Rain = 0
KGO1 100035Z 19005KT 15/02 A3009 RMK A01 T01540017  RH  039%=      5-min Rain = 0
KGO1 100036Z 19005KT 15/02 A3009 RMK A01 T01530016  RH  039%=      5-min Rain = 0
KGO1 100037Z 19004KT 15/02 A3009 RMK A01 T01530016  RH  040%=      5-min Rain = 0
KGO1 100038Z 18004KT 15/02 A3009 RMK A01 T01530017  RH  040%=      5-min Rain = 0
KGO1 100039Z 18005KT 15/02 A3009 RMK A01 T01530017  RH  040%=      5-min Rain = 0
KGO1 100040Z 18005KT 15/02 A3009 RMK A01 T01530017  RH  040%=      5-min Rain = 0
KGO1 100041Z 18005KT 15/02 A3009 RMK A01 T01530017  RH  040%=      5-min Rain = 0
KGO1 100042Z 18005KT 15/02 A3009 RMK A01 T01530017  RH  040%=      5-min Rain = 0
KGO1 100043Z 19005KT 15/02 A3009 RMK A01 T01530018  RH  040%=      5-min Rain = 0
KGO1 100044Z 19005KT 15/02 A3009 RMK A01 T01520018  RH  040%=      5-min Rain = 0
KGO1 100045Z 19005KT 15/02 A3009 RMK A01 T01510018  RH  040%=      5-min Rain = 0
KGO1 100046Z 19005KT 15/02 A3009 RMK A01 T01510018  RH  041%=      5-min Rain = 0
KGO1 100047Z 19005KT 15/02 A3009 RMK A01 T01500018  RH  041%=      5-min Rain = 0
KGO1 100048Z 19006KT 15/02 A3009 RMK A01 T01490018  RH  041%=      5-min Rain = 0
KGO1 100049Z 19005KT 15/02 A3009 RMK A01 T01480018  RH  041%=      5-min Rain = 0
KGO1 100050Z 20005KT 15/02 A3009 RMK A01 T01480019  RH  042%=      5-min Rain = 0
KGO1 100051Z 20006KT 15/02 A3009 RMK A01 T01470018  RH  042%=      5-min Rain = 0
KGO1 100052Z 20006KT 15/02 A3009 RMK A01 T01470018  RH  042%=      5-min Rain = 0
KGO1 100053Z 20006KT 15/02 A3009 RMK A01 T01470018  RH  042%=      5-min Rain = 0
KGO1 100054Z 20006KT 15/02 A3009 RMK A01 T01460017  RH  042%=      5-min Rain = 0
KGO1 100055Z 20006KT 15/02 A3009 RMK A01 T01450017  RH  042%=      5-min Rain = 0
KGO1 100056Z 20006KT 15/02 A3009 RMK A01 T01450017  RH  042%=      5-min Rain = 0
KGO1 100057Z 20006KT 15/02 A3009 RMK A01 T01460016  RH  042%=      5-min Rain = 0
KGO1 100058Z 20006KT 15/02 A3009 RMK A01 T01470017  RH  041%=      5-min Rain = 0
KGO1 100059Z 20006KT 15/02 A3009 RMK A01 T01470017  RH  041%=      5-min Rain = 0
KGO1 100100Z 20006KT 15/02 A3009 RMK A01 T01460017  RH  041%=      5-min Rain = 0
KGO1 100101Z 20006KT 14/02 A3009 RMK A01 T01440016  RH  042%=      5-min Rain = 0
KGO1 100102Z 20006KT 14/02 A3009 RMK A01 T01440016  RH  042%=      5-min Rain = 0
KGO1 100103Z 20007KT 14/02 A3009 RMK A01 T01440016  RH  042%=      5-min Rain = 0
KGO1 100104Z 20007KT 14/02 A3009 RMK A01 T01430016  RH  042%=      5-min Rain = 0
KGO1 100105Z 20007KT 14/02 A3009 RMK A01 T01420017  RH  043%=      5-min Rain = 0
KGO1 100106Z 20007KT 14/02 A3009 RMK A01 T01410017  RH  043%=      5-min Rain = 0
KGO1 100107Z 20007KT 14/02 A3009 RMK A01 T01400016  RH  043%=      5-min Rain = 0
KGO1 100108Z 20007KT 14/02 A3009 RMK A01 T01390017  RH  043%=      5-min Rain = 0
KGO1 100109Z 20008KT 14/02 A3009 RMK A01 T01380017  RH  044%=      5-min Rain = 0
KGO1 100110Z 20008KT 14/02 A3009 RMK A01 T01370018  RH  044%=      5-min Rain = 0
KGO1 100111Z 20008KT 14/02 A3009 RMK A01 T01350017  RH  045%=      5-min Rain = 0
KGO1 100112Z 20007KT 13/02 A3009 RMK A01 T01340017  RH  045%=      5-min Rain = 0
KGO1 100113Z 20007KT 13/02 A3009 RMK A01 T01340017  RH  045%=      5-min Rain = 0
KGO1 100114Z 20007KT 13/02 A3009 RMK A01 T01330018  RH  045%=      5-min Rain = 0
KGO1 100115Z 20007KT 13/02 A3009 RMK A01 T01320017  RH  046%=      5-min Rain = 0
KGO1 100116Z 20007KT 13/02 A3009 RMK A01 T01320017  RH  046%=      5-min Rain = 0
KGO1 100117Z 20007KT 13/02 A3009 RMK A01 T01330018  RH  045%=      5-min Rain = 0
KGO1 100118Z 20007KT 13/02 A3009 RMK A01 T01330018  RH  045%=      5-min Rain = 0
KGO1 100119Z 20007KT 13/02 A3009 RMK A01 T01340018  RH  045%=      5-min Rain = 0
KGO1 100120Z 20007KT 14/02 A3009 RMK A01 T01350018  RH  045%=      5-min Rain = 0
KGO1 100121Z 20007KT 14/02 A3009 RMK A01 T01350018  RH  045%=      5-min Rain = 0
KGO1 100122Z 20006KT 13/02 A3009 RMK A01 T01340017  RH  045%=      5-min Rain = 0
KGO1 100123Z 20006KT 13/02 A3009 RMK A01 T01330017  RH  045%=      5-min Rain = 0
KGO1 100124Z 20006KT 13/02 A3009 RMK A01 T01310017  RH  046%=      5-min Rain = 0
KGO1 100125Z 20006KT 13/02 A3009 RMK A01 T01290016  RH  046%=      5-min Rain = 0
KGO1 100126Z 20006KT 13/02 A3009 RMK A01 T01260017  RH  047%=      5-min Rain = 0
KGO1 100127Z 20005KT 12/02 A3009 RMK A01 T01230016  RH  048%=      5-min Rain = 0
KGO1 100128Z 20005KT 12/02 A3009 RMK A01 T01210017  RH  049%=      5-min Rain = 0
KGO1 100129Z 19004KT 12/01 A3009 RMK A01 T01200014  RH  048%=      5-min Rain = 0
KGO1 100130Z 20003KT 12/01 A3009 RMK A01 T01210013  RH  047%=      5-min Rain = 0
KGO1 100131Z 21003KT 12/01 A3009 RMK A01 T01200013  RH  048%=      5-min Rain = 0
KGO1 100132Z 21005KT 12/01 A3009 RMK A01 T01220014  RH  048%=      5-min Rain = 0
KGO1 100133Z 21005KT 13/01 A3009 RMK A01 T01260014  RH  046%=      5-min Rain = 0
KGO1 100134Z 21006KT 13/01 A3009 RMK A01 T01300014  RH  045%=      5-min Rain = 0
KGO1 100135Z 21006KT 13/01 A3009 RMK A01 T01310013  RH  045%=      5-min Rain = 0
KGO1 100136Z 21005KT 13/02 A3009 RMK A01 T01310015  RH  045%=      5-min Rain = 0
KGO1 100137Z 22004KT 13/02 A3009 RMK A01 T01290016  RH  046%=      5-min Rain = 0
KGO1 100138Z 22004KT 13/02 A3009 RMK A01 T01250015  RH  047%=      5-min Rain = 0
KGO1 100139Z 21004KT 12/01 A3009 RMK A01 T01200014  RH  048%=      5-min Rain = 0
KGO1 100140Z 21005KT 12/02 A3009 RMK A01 T01160015  RH  050%=      5-min Rain = 0
KGO1 100141Z 21004KT 11/02 A3009 RMK A01 T01130015  RH  051%=      5-min Rain = 0
KGO1 100142Z 21004KT 11/02 A3009 RMK A01 T01100015  RH  052%=      5-min Rain = 0
KGO1 100143Z 21004KT 11/02 A3009 RMK A01 T01080016  RH  053%=      5-min Rain = 0
KGO1 100144Z 20003KT 11/02 A3009 RMK A01 T01070016  RH  054%=      5-min Rain = 0
KGO1 100145Z 20002KT 11/02 A3009 RMK A01 T01050016  RH  054%=      5-min Rain = 0
KGO1 100146Z 20003KT 10/02 A3009 RMK A01 T01040016  RH  054%=      5-min Rain = 0
KGO1 100147Z 20003KT 10/02 A3009 RMK A01 T01040016  RH  054%=      5-min Rain = 0
KGO1 100148Z 20003KT 11/02 A3009 RMK A01 T01060016  RH  054%=      5-min Rain = 0
KGO1 100149Z 21003KT 11/02 A3009 RMK A01 T01070016  RH  053%=      5-min Rain = 0
KGO1 100150Z 21003KT 11/02 A3009 RMK A01 T01090016  RH  053%=      5-min Rain = 0
KGO1 100151Z 21003KT 11/02 A3009 RMK A01 T01090016  RH  053%=      5-min Rain = 0
KGO1 100152Z 21003KT 11/02 A3009 RMK A01 T01090016  RH  052%=      5-min Rain = 0
KGO1 100153Z 21003KT 11/02 A3009 RMK A01 T01090016  RH  053%=      5-min Rain = 0
KGO1 100154Z 21003KT 11/02 A3009 RMK A01 T01090017  RH  053%=      5-min Rain = 0
KGO1 100155Z 20004KT 11/02 A3009 RMK A01 T01090016  RH  053%=      5-min Rain = 0
KGO1 100156Z 21003KT 11/02 A3009 RMK A01 T01090017  RH  053%=      5-min Rain = 0
KGO1 100157Z 20003KT 11/02 A3009 RMK A01 T01080017  RH  053%=      5-min Rain = 0
KGO1 100158Z 20003KT 11/02 A3009 RMK A01 T01060017  RH  054%=      5-min Rain = 0
KGO1 100159Z 20004KT 10/02 A3009 RMK A01 T01030017  RH  055%=      5-min Rain = 0
KGO1 100200Z 20005KT 10/02 A3009 RMK A01 T01020017  RH  055%=      5-min Rain = 0
KGO1 100201Z 20004KT 10/02 A3009 RMK A01 T01010017  RH  056%=      5-min Rain = 0
KGO1 100202Z 20005KT 10/02 A3009 RMK A01 T00990017  RH  057%=      5-min Rain = 0
KGO1 100203Z 20006KT 10/02 A3009 RMK A01 T00980018  RH  057%=      5-min Rain = 0
KGO1 100204Z 20006KT 10/02 A3009 RMK A01 T00980018  RH  058%=      5-min Rain = 0
KGO1 100205Z 20007KT 10/02 A3009 RMK A01 T00980018  RH  057%=      5-min Rain = 0
KGO1 100206Z 20006KT 10/02 A3009 RMK A01 T00990018  RH  057%=      5-min Rain = 0
KGO1 100207Z 20006KT 10/02 A3009 RMK A01 T00990018  RH  057%=      5-min Rain = 0
KGO1 100208Z 20007KT 10/02 A3009 RMK A01 T00980017  RH  057%=      5-min Rain = 0
KGO1 100209Z 20007KT 10/02 A3009 RMK A01 T00990017  RH  057%=      5-min Rain = 0
KGO1 100210Z 20007KT 10/02 A3009 RMK A01 T00990017  RH  057%=      5-min Rain = 0
KGO1 100211Z 20007KT 10/02 A3009 RMK A01 T01010018  RH  056%=      5-min Rain = 0
KGO1 100212Z 20008KT 10/02 A3009 RMK A01 T01010017  RH  056%=      5-min Rain = 0
KGO1 100213Z 20008KT 10/02 A3009 RMK A01 T01010018  RH  056%=      5-min Rain = 0
KGO1 100214Z 20009KT 10/02 A3009 RMK A01 T01000018  RH  057%=      5-min Rain = 0
KGO1 100215Z 20009KT 10/02 A3009 RMK A01 T00990017  RH  057%=      5-min Rain = 0
KGO1 100216Z 20009KT 10/02 A3009 RMK A01 T01000018  RH  057%=      5-min Rain = 0
KGO1 100217Z 20008KT 10/02 A3009 RMK A01 T01000019  RH  057%=      5-min Rain = 0
KGO1 100218Z 20008KT 10/02 A3009 RMK A01 T01030019  RH  056%=      5-min Rain = 0
KGO1 100219Z 20008KT 11/02 A3009 RMK A01 T01070019  RH  055%=      5-min Rain = 0
KGO1 100220Z 20008KT 11/02 A3009 RMK A01 T01090020  RH  054%=      5-min Rain = 0
KGO1 100221Z 20008KT 11/02 A3008 RMK A01 T01120019  RH  053%=      5-min Rain = 0
KGO1 100222Z 20008KT 11/02 A3008 RMK A01 T01140019  RH  052%=      5-min Rain = 0
KGO1 100223Z 20008KT 11/02 A3008 RMK A01 T01140019  RH  052%=      5-min Rain = 0
KGO1 100224Z 19008KT 12/02 A3008 RMK A01 T01150019  RH  052%=      5-min Rain = 0
KGO1 100225Z 19008KT 12/02 A3008 RMK A01 T01160019  RH  051%=      5-min Rain = 0
KGO1 100226Z 19008KT 12/02 A3008 RMK A01 T01170019  RH  051%=      5-min Rain = 0
KGO1 100227Z 19008KT 12/02 A3008 RMK A01 T01180018  RH  051%=      5-min Rain = 0
KGO1 100228Z 19008KT 12/02 A3008 RMK A01 T01180018  RH  050%=      5-min Rain = 0
KGO1 100229Z 19008KT 12/02 A3008 RMK A01 T01180018  RH  050%=      5-min Rain = 0
KGO1 100230Z 19008KT 12/02 A3008 RMK A01 T01180019  RH  050%=      5-min Rain = 0
KGO1 100231Z 19009KT 12/02 A3008 RMK A01 T01180018  RH  050%=      5-min Rain = 0
KGO1 100232Z 18011KT 12/02 A3008 RMK A01 T01200018  RH  050%=      5-min Rain = 0
KGO1 100233Z 18011KT 12/02 A3008 RMK A01 T01210019  RH  050%=      5-min Rain = 0
KGO1 100234Z 19009KT 12/02 A3008 RMK A01 T01240020  RH  049%=      5-min Rain = 0
KGO1 100235Z 19009KT 13/02 A3009 RMK A01 T01260019  RH  048%=      5-min Rain = 0
KGO1 100236Z 19010KT 13/02 A3009 RMK A01 T01270018  RH  048%=      5-min Rain = 0
KGO1 100237Z 19009KT 13/02 A3009 RMK A01 T01270018  RH  047%=      5-min Rain = 0
KGO1 100238Z 19009KT 13/02 A3009 RMK A01 T01260017  RH  047%=      5-min Rain = 0
KGO1 100239Z 19009KT 13/02 A3009 RMK A01 T01260017  RH  047%=      5-min Rain = 0
KGO1 100240Z 19009KT 13/02 A3009 RMK A01 T01250016  RH  047%=      5-min Rain = 0
KGO1 100241Z 19008KT 12/02 A3009 RMK A01 T01230016  RH  048%=      5-min Rain = 0
KGO1 100242Z 19008KT 12/02 A3008 RMK A01 T01230016  RH  048%=      5-min Rain = 0
KGO1 100243Z 19007KT 12/02 A3008 RMK A01 T01220015  RH  048%=      5-min Rain = 0
KGO1 100244Z 19007KT 12/02 A3008 RMK A01 T01210015  RH  048%=      5-min Rain = 0
KGO1 100245Z 19008KT 12/02 A3008 RMK A01 T01200015  RH  049%=      5-min Rain = 0
KGO1 100246Z 19007KT 12/02 A3008 RMK A01 T01200015  RH  049%=      5-min Rain = 0
KGO1 100247Z 20007KT 12/02 A3008 RMK A01 T01190015  RH  049%=      5-min Rain = 0
KGO1 100248Z 20007KT 12/02 A3008 RMK A01 T01180016  RH  049%=      5-min Rain = 0
KGO1 100249Z 20007KT 12/02 A3008 RMK A01 T01180016  RH  050%=      5-min Rain = 0
KGO1 100250Z 21007KT 12/02 A3008 RMK A01 T01170016  RH  050%=      5-min Rain = 0
KGO1 100251Z 20007KT 12/02 A3008 RMK A01 T01160016  RH  050%=      5-min Rain = 0
KGO1 100252Z 21007KT 12/02 A3008 RMK A01 T01150016  RH  051%=      5-min Rain = 0
KGO1 100253Z 21008KT 11/02 A3008 RMK A01 T01140016  RH  051%=      5-min Rain = 0
KGO1 100254Z 21008KT 11/02 A3008 RMK A01 T01140016  RH  051%=      5-min Rain = 0
KGO1 100255Z 21009KT 11/02 A3008 RMK A01 T01140015  RH  050%=      5-min Rain = 0
KGO1 100256Z 21009KT 12/02 A3008 RMK A01 T01150015  RH  050%=      5-min Rain = 0
KGO1 100257Z 21009KT 12/02 A3008 RMK A01 T01160015  RH  050%=      5-min Rain = 0
KGO1 100258Z 21009KT 12/02 A3008 RMK A01 T01170015  RH  050%=      5-min Rain = 0
KGO1 100259Z 21009KT 12/02 A3008 RMK A01 T01180016  RH  049%=      5-min Rain = 0
KGO1 100300Z 21010KT 12/02 A3008 RMK A01 T01190015  RH  049%=      5-min Rain = 0
KGO1 100301Z 21010KT 12/02 A3008 RMK A01 T01190016  RH  049%=      5-min Rain = 0
KGO1 100302Z 21009KT 12/02 A3008 RMK A01 T01200015  RH  049%=      5-min Rain = 0
KGO1 100303Z 21009KT 12/02 A3008 RMK A01 T01210016  RH  049%=      5-min Rain = 0
KGO1 100304Z 21009KT 12/02 A3008 RMK A01 T01210016  RH  048%=      5-min Rain = 0
KGO1 100305Z 21009KT 12/02 A3008 RMK A01 T01220016  RH  048%=      5-min Rain = 0
KGO1 100306Z 21009KT 12/02 A3008 RMK A01 T01220016  RH  048%=      5-min Rain = 0
KGO1 100307Z 20009KT 12/02 A3008 RMK A01 T01230015  RH  048%=      5-min Rain = 0
KGO1 100308Z 20009KT 12/02 A3008 RMK A01 T01240015  RH  048%=      5-min Rain = 0
KGO1 100309Z 20009KT 12/02 A3008 RMK A01 T01240015  RH  047%=      5-min Rain = 0
KGO1 100310Z 20009KT 13/02 A3008 RMK A01 T01250016  RH  047%=      5-min Rain = 0
KGO1 100311Z 20009KT 13/02 A3008 RMK A01 T01250015  RH  047%=      5-min Rain = 0
KGO1 100312Z 20009KT 13/02 A3009 RMK A01 T01250015  RH  047%=      5-min Rain = 0
KGO1 100313Z 20009KT 13/02 A3009 RMK A01 T01250016  RH  047%=      5-min Rain = 0
KGO1 100314Z 20009KT 12/02 A3009 RMK A01 T01240016  RH  047%=      5-min Rain = 0
KGO1 100315Z 20009KT 13/02 A3009 RMK A01 T01250016  RH  047%=      5-min Rain = 0
KGO1 100316Z 20009KT 12/02 A3009 RMK A01 T01240016  RH  047%=      5-min Rain = 0
KGO1 100317Z 20009KT 13/02 A3009 RMK A01 T01250016  RH  047%=      5-min Rain = 0
KGO1 100318Z 20009KT 13/02 A3009 RMK A01 T01260016  RH  047%=      5-min Rain = 0
KGO1 100319Z 20009KT 13/02 A3009 RMK A01 T01260016  RH  047%=      5-min Rain = 0
KGO1 100320Z 20010KT 13/02 A3009 RMK A01 T01270016  RH  047%=      5-min Rain = 0
KGO1 100321Z 20009KT 13/02 A3008 RMK A01 T01280016  RH  047%=      5-min Rain = 0
KGO1 100322Z 20009KT 13/02 A3008 RMK A01 T01280017  RH  046%=      5-min Rain = 0
KGO1 100323Z 20010KT 13/02 A3008 RMK A01 T01280016  RH  046%=      5-min Rain = 0
KGO1 100324Z 20010KT 13/02 A3008 RMK A01 T01280016  RH  046%=      5-min Rain = 0
KGO1 100325Z 20010KT 13/02 A3008 RMK A01 T01280016  RH  047%=      5-min Rain = 0
KGO1 100326Z 20010KT 13/02 A3008 RMK A01 T01280016  RH  046%=      5-min Rain = 0
KGO1 100327Z 20010KT 13/02 A3008 RMK A01 T01290017  RH  046%=      5-min Rain = 0
KGO1 100328Z 20010KT 13/02 A3008 RMK A01 T01290017  RH  046%=      5-min Rain = 0
KGO1 100329Z 20010KT 13/02 A3008 RMK A01 T01290017  RH  047%=      5-min Rain = 0
KGO1 100330Z 20009KT 13/02 A3008 RMK A01 T01290017  RH  046%=      5-min Rain = 0
KGO1 100331Z 20009KT 13/02 A3008 RMK A01 T01290017  RH  046%=      5-min Rain = 0
KGO1 100332Z 19009KT 13/02 A3008 RMK A01 T01290017  RH  046%=      5-min Rain = 0
KGO1 100333Z 19009KT 13/02 A3009 RMK A01 T01290017  RH  047%=      5-min Rain = 0
KGO1 100334Z 19009KT 13/02 A3009 RMK A01 T01280017  RH  047%=      5-min Rain = 0
KGO1 100335Z 20009KT 13/02 A3009 RMK A01 T01270017  RH  047%=      5-min Rain = 0
KGO1 100336Z 20009KT 13/02 A3009 RMK A01 T01260016  RH  047%=      5-min Rain = 0
KGO1 100337Z 20009KT 13/02 A3009 RMK A01 T01270017  RH  047%=      5-min Rain = 0
KGO1 100338Z 20008KT 13/02 A3009 RMK A01 T01270017  RH  047%=      5-min Rain = 0
KGO1 100339Z 20008KT 13/02 A3009 RMK A01 T01270017  RH  047%=      5-min Rain = 0
KGO1 100340Z 20007KT 13/02 A3009 RMK A01 T01270018  RH  047%=      5-min Rain = 0
KGO1 100341Z 21007KT 13/02 A3009 RMK A01 T01270018  RH  047%=      5-min Rain = 0
KGO1 100342Z 21007KT 13/02 A3009 RMK A01 T01260018  RH  048%=      5-min Rain = 0
KGO1 100343Z 21006KT 13/02 A3009 RMK A01 T01250017  RH  048%=      5-min Rain = 0
KGO1 100344Z 21006KT 12/02 A3009 RMK A01 T01240017  RH  048%=      5-min Rain = 0
KGO1 100345Z 20006KT 12/02 A3009 RMK A01 T01230017  RH  048%=      5-min Rain = 0
KGO1 100346Z 20006KT 12/02 A3009 RMK A01 T01230017  RH  048%=      5-min Rain = 0
KGO1 100347Z 20007KT 12/02 A3009 RMK A01 T01220018  RH  049%=      5-min Rain = 0
KGO1 100348Z 20007KT 12/02 A3009 RMK A01 T01220019  RH  049%=      5-min Rain = 0
KGO1 100349Z 20007KT 12/02 A3009 RMK A01 T01210020  RH  050%=      5-min Rain = 0
KGO1 100350Z 20007KT 12/02 A3009 RMK A01 T01210021  RH  050%=      5-min Rain = 0
KGO1 100351Z 20008KT 12/02 A3009 RMK A01 T01210022  RH  051%=      5-min Rain = 0
KGO1 100352Z 21008KT 12/02 A3009 RMK A01 T01220023  RH  051%=      5-min Rain = 0
KGO1 100353Z 21008KT 12/02 A3009 RMK A01 T01220023  RH  051%=      5-min Rain = 0
KGO1 100354Z 21008KT 12/02 A3009 RMK A01 T01210024  RH  051%=      5-min Rain = 0
KGO1 100355Z 21008KT 12/02 A3009 RMK A01 T01210024  RH  052%=      5-min Rain = 0
KGO1 100356Z 21008KT 12/03 A3009 RMK A01 T01210025  RH  052%=      5-min Rain = 0
KGO1 100357Z 21009KT 12/03 A3009 RMK A01 T01200025  RH  052%=      5-min Rain = 0
KGO1 100358Z 21010KT 12/03 A3009 RMK A01 T01200026  RH  053%=      5-min Rain = 0
KGO1 100359Z 21009KT 12/03 A3009 RMK A01 T01220028  RH  052%=      5-min Rain = 0
KGO1 100400Z 21010KT 12/03 A3009 RMK A01 T01240029  RH  052%=      5-min Rain = 0
KGO1 100401Z 21009KT 13/03 A3009 RMK A01 T01250029  RH  052%=      5-min Rain = 0
KGO1 100402Z 21009KT 13/03 A3009 RMK A01 T01270030  RH  052%=      5-min Rain = 0
KGO1 100403Z 21009KT 13/03 A3009 RMK A01 T01280030  RH  051%=      5-min Rain = 0
KGO1 100404Z 21009KT 13/03 A3009 RMK A01 T01290030  RH  051%=      5-min Rain = 0
KGO1 100405Z 21008KT 13/03 A3009 RMK A01 T01310031  RH  051%=      5-min Rain = 0
KGO1 100406Z 21008KT 13/03 A3009 RMK A01 T01320031  RH  050%=      5-min Rain = 0
KGO1 100407Z 21008KT 13/03 A3009 RMK A01 T01320031  RH  050%=      5-min Rain = 0
KGO1 100408Z 22008KT 13/03 A3009 RMK A01 T01310031  RH  051%=      5-min Rain = 0
KGO1 100409Z 21007KT 13/03 A3009 RMK A01 T01290031  RH  051%=      5-min Rain = 0
KGO1 100410Z 21007KT 13/03 A3009 RMK A01 T01280031  RH  052%=      5-min Rain = 0
KGO1 100411Z 22006KT 13/03 A3009 RMK A01 T01270031  RH  052%=      5-min Rain = 0
KGO1 100412Z 22006KT 13/03 A3009 RMK A01 T01250031  RH  053%=      5-min Rain = 0
KGO1 100413Z 22006KT 12/03 A3009 RMK A01 T01240031  RH  053%=      5-min Rain = 0
KGO1 100414Z 22005KT 12/03 A3009 RMK A01 T01230031  RH  053%=      5-min Rain = 0
KGO1 100415Z 22005KT 12/03 A3009 RMK A01 T01220031  RH  054%=      5-min Rain = 0
KGO1 100416Z 22005KT 12/03 A3009 RMK A01 T01210031  RH  054%=      5-min Rain = 0
KGO1 100417Z 22004KT 12/03 A3009 RMK A01 T01200031  RH  055%=      5-min Rain = 0
KGO1 100418Z 22004KT 12/03 A3009 RMK A01 T01190031  RH  055%=      5-min Rain = 0
KGO1 100419Z 21005KT 12/03 A3009 RMK A01 T01200032  RH  055%=      5-min Rain = 0
KGO1 100420Z 21005KT 12/03 A3009 RMK A01 T01220032  RH  054%=      5-min Rain = 0
KGO1 100421Z 20005KT 12/03 A3009 RMK A01 T01230033  RH  054%=      5-min Rain = 0
KGO1 100422Z 20005KT 12/03 A3009 RMK A01 T01230032  RH  053%=      5-min Rain = 0
KGO1 100423Z 20005KT 12/03 A3009 RMK A01 T01240031  RH  053%=      5-min Rain = 0
KGO1 100424Z 20005KT 12/03 A3009 RMK A01 T01230031  RH  054%=      5-min Rain = 0
KGO1 100425Z 20004KT 12/03 A3009 RMK A01 T01230032  RH  054%=      5-min Rain = 0
KGO1 100426Z 20004KT 12/03 A3009 RMK A01 T01220032  RH  054%=      5-min Rain = 0
KGO1 100427Z 20004KT 12/03 A3009 RMK A01 T01210032  RH  054%=      5-min Rain = 0
KGO1 100428Z 20004KT 12/03 A3009 RMK A01 T01210032  RH  055%=      5-min Rain = 0
KGO1 100429Z 20004KT 12/03 A3009 RMK A01 T01200032  RH  055%=      5-min Rain = 0
KGO1 100430Z 20004KT 12/03 A3009 RMK A01 T01200032  RH  055%=      5-min Rain = 0
KGO1 100431Z 20004KT 12/03 A3009 RMK A01 T01200033  RH  055%=      5-min Rain = 0
KGO1 100432Z 21004KT 12/03 A3009 RMK A01 T01200033  RH  055%=      5-min Rain = 0
KGO1 100433Z 21003KT 12/03 A3009 RMK A01 T01200032  RH  055%=      5-min Rain = 0
KGO1 100434Z 21003KT 12/03 A3009 RMK A01 T01200032  RH  055%=      5-min Rain = 0
KGO1 100435Z 20003KT 12/03 A3009 RMK A01 T01200032  RH  055%=      5-min Rain = 0
KGO1 100436Z 20003KT 12/03 A3009 RMK A01 T01200032  RH  055%=      5-min Rain = 0
KGO1 100437Z 20003KT 12/03 A3009 RMK A01 T01180031  RH  055%=      5-min Rain = 0
KGO1 100438Z 20003KT 12/03 A3009 RMK A01 T01170031  RH  055%=      5-min Rain = 0
KGO1 100439Z 20003KT 12/03 A3009 RMK A01 T01150030  RH  056%=      5-min Rain = 0
KGO1 100440Z 20003KT 11/03 A3009 RMK A01 T01130029  RH  056%=      5-min Rain = 0
KGO1 100441Z 19003KT 11/03 A3009 RMK A01 T01110029  RH  057%=      5-min Rain = 0
KGO1 100442Z 19003KT 11/03 A3009 RMK A01 T01100029  RH  058%=      5-min Rain = 0
KGO1 100443Z 19003KT 11/03 A3009 RMK A01 T01080029  RH  058%=      5-min Rain = 0
KGO1 100444Z 20003KT 11/03 A3009 RMK A01 T01080030  RH  059%=      5-min Rain = 0
KGO1 100445Z 20003KT 11/03 A3009 RMK A01 T01070030  RH  059%=      5-min Rain = 0
KGO1 100446Z 20002KT 11/03 A3009 RMK A01 T01060029  RH  059%=      5-min Rain = 0
KGO1 100447Z 21002KT 10/03 A3009 RMK A01 T01040029  RH  060%=      5-min Rain = 0
KGO1 100448Z 21002KT 10/03 A3009 RMK A01 T01020027  RH  060%=      5-min Rain = 0
KGO1 100449Z 22001KT 10/03 A3009 RMK A01 T01020027  RH  060%=      5-min Rain = 0
KGO1 100450Z 22001KT 10/03 A3009 RMK A01 T01020027  RH  060%=      5-min Rain = 0
KGO1 100451Z 23001KT 10/03 A3009 RMK A01 T01030026  RH  059%=      5-min Rain = 0
KGO1 100452Z 22003KT 11/03 A3009 RMK A01 T01050025  RH  058%=      5-min Rain = 0
KGO1 100453Z 21004KT 11/02 A3009 RMK A01 T01060024  RH  057%=      5-min Rain = 0
KGO1 100454Z 22004KT 11/02 A3009 RMK A01 T01070024  RH  056%=      5-min Rain = 0
KGO1 100455Z 22005KT 11/02 A3009 RMK A01 T01070024  RH  056%=      5-min Rain = 0
KGO1 100456Z 22005KT 11/02 A3009 RMK A01 T01060023  RH  056%=      5-min Rain = 0
KGO1 100457Z 22005KT 10/02 A3009 RMK A01 T01040022  RH  057%=      5-min Rain = 0
KGO1 100458Z 22005KT 10/02 A3009 RMK A01 T01020022  RH  057%=      5-min Rain = 0
KGO1 100459Z 22005KT 10/02 A3009 RMK A01 T01010022  RH  058%=      5-min Rain = 0
KGO1 100500Z 22004KT 10/02 A3009 RMK A01 T00990021  RH  058%=      5-min Rain = 0
KGO1 100501Z 21004KT 10/02 A3009 RMK A01 T00970021  RH  059%=      5-min Rain = 0
KGO1 100502Z 21004KT 10/02 A3009 RMK A01 T00960021  RH  060%=      5-min Rain = 0
KGO1 100503Z 21004KT 10/02 A3008 RMK A01 T00950021  RH  060%=      5-min Rain = 0
KGO1 100504Z 21004KT 09/02 A3008 RMK A01 T00940021  RH  060%=      5-min Rain = 0
KGO1 100505Z 21003KT 09/02 A3008 RMK A01 T00940022  RH  061%=      5-min Rain = 0
KGO1 100506Z 20003KT 09/02 A3008 RMK A01 T00930022  RH  061%=      5-min Rain = 0
KGO1 100507Z 20003KT 09/02 A3008 RMK A01 T00930021  RH  061%=      5-min Rain = 0
KGO1 100508Z 20002KT 09/02 A3008 RMK A01 T00930021  RH  061%=      5-min Rain = 0
KGO1 100509Z 21003KT 10/02 A3008 RMK A01 T00950022  RH  060%=      5-min Rain = 0
KGO1 100510Z 21002KT 10/02 A3009 RMK A01 T00950021  RH  060%=      5-min Rain = 0
KGO1 100511Z 21003KT 10/02 A3009 RMK A01 T00950021  RH  060%=      5-min Rain = 0
KGO1 100512Z 21003KT 10/02 A3009 RMK A01 T00960021  RH  060%=      5-min Rain = 0
KGO1 100513Z 20003KT 10/02 A3009 RMK A01 T00970021  RH  059%=      5-min Rain = 0
KGO1 100514Z 20003KT 10/02 A3009 RMK A01 T00980020  RH  058%=      5-min Rain = 0
KGO1 100515Z 20003KT 10/02 A3009 RMK A01 T00980020  RH  058%=      5-min Rain = 0
KGO1 100516Z 20003KT 10/02 A3009 RMK A01 T00970019  RH  058%=      5-min Rain = 0
KGO1 100517Z 21003KT 10/02 A3008 RMK A01 T00950019  RH  059%=      5-min Rain = 0
KGO1 100518Z 21003KT 10/02 A3008 RMK A01 T00950020  RH  059%=      5-min Rain = 0
KGO1 100519Z 21003KT 10/02 A3008 RMK A01 T00950020  RH  060%=      5-min Rain = 0
KGO1 100520Z 21004KT 09/02 A3008 RMK A01 T00930020  RH  060%=      5-min Rain = 0
KGO1 100521Z 22004KT 09/02 A3008 RMK A01 T00920020  RH  060%=      5-min Rain = 0
KGO1 100522Z 22004KT 09/02 A3008 RMK A01 T00920019  RH  060%=      5-min Rain = 0
KGO1 100523Z 22004KT 09/02 A3008 RMK A01 T00910019  RH  061%=      5-min Rain = 0
KGO1 100524Z 21004KT 09/02 A3008 RMK A01 T00900019  RH  061%=      5-min Rain = 0
KGO1 100525Z 21005KT 09/02 A3008 RMK A01 T00890019  RH  062%=      5-min Rain = 0
KGO1 100526Z 20004KT 09/02 A3008 RMK A01 T00880019  RH  062%=      5-min Rain = 0
KGO1 100527Z 19005KT 09/02 A3008 RMK A01 T00890019  RH  062%=      5-min Rain = 0
KGO1 100528Z 18004KT 09/02 A3008 RMK A01 T00910019  RH  061%=      5-min Rain = 0
KGO1 100529Z 18005KT 09/02 A3008 RMK A01 T00910019  RH  061%=      5-min Rain = 0
KGO1 100530Z 18004KT 09/02 A3008 RMK A01 T00920019  RH  060%=      5-min Rain = 0
KGO1 100531Z 18004KT 09/02 A3008 RMK A01 T00940020  RH  060%=      5-min Rain = 0
KGO1 100532Z 18004KT 10/02 A3008 RMK A01 T00980021  RH  059%=      5-min Rain = 0
KGO1 100533Z 18005KT 10/02 A3008 RMK A01 T01000020  RH  058%=      5-min Rain = 0
KGO1 100534Z 18006KT 10/02 A3008 RMK A01 T01000020  RH  057%=      5-min Rain = 0
KGO1 100535Z 18005KT 10/02 A3008 RMK A01 T00990019  RH  057%=      5-min Rain = 0
KGO1 100536Z 19006KT 10/02 A3008 RMK A01 T01000020  RH  057%=      5-min Rain = 0
KGO1 100537Z 19006KT 10/02 A3008 RMK A01 T01040021  RH  056%=      5-min Rain = 0
KGO1 100538Z 18005KT 11/02 A3008 RMK A01 T01080021  RH  055%=      5-min Rain = 0
KGO1 100539Z 19006KT 11/02 A3008 RMK A01 T01090022  RH  055%=      5-min Rain = 0
KGO1 100540Z 20005KT 11/02 A3008 RMK A01 T01090022  RH  055%=      5-min Rain = 0
KGO1 100541Z 19005KT 11/02 A3008 RMK A01 T01070021  RH  055%=      5-min Rain = 0
KGO1 100542Z 19005KT 11/02 A3008 RMK A01 T01050020  RH  056%=      5-min Rain = 0
KGO1 100543Z 20006KT 11/02 A3008 RMK A01 T01050020  RH  056%=      5-min Rain = 0
KGO1 100544Z 19004KT 11/02 A3008 RMK A01 T01060020  RH  055%=      5-min Rain = 0
KGO1 100545Z 19005KT 11/02 A3008 RMK A01 T01080021  RH  055%=      5-min Rain = 0
KGO1 100546Z 19005KT 11/02 A3008 RMK A01 T01080022  RH  055%=      5-min Rain = 0
KGO1 100547Z 19005KT 11/02 A3008 RMK A01 T01090022  RH  055%=      5-min Rain = 0
KGO1 100548Z 18004KT 11/02 A3008 RMK A01 T01080023  RH  055%=      5-min Rain = 0
KGO1 100549Z 18005KT 11/02 A3008 RMK A01 T01080023  RH  055%=      5-min Rain = 0
KGO1 100550Z 18005KT 11/02 A3008 RMK A01 T01080022  RH  055%=      5-min Rain = 0
KGO1 100551Z 17005KT 11/02 A3008 RMK A01 T01080022  RH  055%=      5-min Rain = 0
KGO1 100552Z 17005KT 11/02 A3008 RMK A01 T01080022  RH  056%=      5-min Rain = 0
KGO1 100553Z 17005KT 11/02 A3008 RMK A01 T01060021  RH  056%=      5-min Rain = 0
KGO1 100554Z 17006KT 11/02 A3008 RMK A01 T01060021  RH  056%=      5-min Rain = 0
KGO1 100555Z 17004KT 11/02 A3008 RMK A01 T01060022  RH  056%=      5-min Rain = 0
KGO1 100556Z 20005KT 10/02 A3008 RMK A01 T01030020  RH  056%=      5-min Rain = 0
KGO1 100557Z 18005KT 11/02 A3008 RMK A01 T01060021  RH  055%=      5-min Rain = 0
KGO1 100558Z 19006KT 11/02 A3008 RMK A01 T01070022  RH  055%=      5-min Rain = 0
KGO1 100559Z 20004KT 11/02 A3008 RMK A01 T01070021  RH  055%=      5-min Rain = 0

Page generated in 0.0711 seconds.